Observation data for Canadian on 12/09/2018      Previous  Date       Current Mesonet Observations  Soil Data  Daily Summary Page  Observations in Plain Language
KCA1 090600Z 29004KT M08/M13 A3031 RMK A01 T10781134  RH  064%=      5-min Rain = 0
KCA1 090601Z 29004KT M08/M13 A303 RMK A01 T10781133  RH  064%=      5-min Rain = 0
KCA1 090602Z 29004KT M08/M13 A303 RMK A01 T10781133  RH  065%=      5-min Rain = 0
KCA1 090603Z 29004KT M08/M13 A303 RMK A01 T10791134  RH  065%=      5-min Rain = 0
KCA1 090604Z 29004KT M08/M13 A303 RMK A01 T10791134  RH  065%=      5-min Rain = 0
KCA1 090605Z 29004KT M08/M13 A303 RMK A01 T10801134  RH  065%=      5-min Rain = 0
KCA1 090606Z 29005KT M08/M13 A3031 RMK A01 T10811134  RH  065%=      5-min Rain = 0
KCA1 090607Z 29005KT M08/M13 A3031 RMK A01 T10811134  RH  065%=      5-min Rain = 0
KCA1 090608Z 29005KT M08/M13 A3031 RMK A01 T10811134  RH  066%=      5-min Rain = 0
KCA1 090609Z 29004KT M08/M13 A3031 RMK A01 T10811133  RH  066%=      5-min Rain = 0
KCA1 090610Z 29004KT M08/M13 A3031 RMK A01 T10811133  RH  066%=      5-min Rain = 0
KCA1 090611Z 29004KT M08/M13 A3031 RMK A01 T10811132  RH  067%=      5-min Rain = 0
KCA1 090612Z 29004KT M08/M13 A3031 RMK A01 T10811132  RH  066%=      5-min Rain = 0
KCA1 090613Z 29004KT M08/M13 A3031 RMK A01 T10811133  RH  066%=      5-min Rain = 0
KCA1 090614Z 29004KT M08/M13 A3031 RMK A01 T10811132  RH  067%=      5-min Rain = 0
KCA1 090615Z 30005KT M08/M13 A3031 RMK A01 T10811132  RH  067%=      5-min Rain = 0
KCA1 090616Z 30004KT M08/M13 A3031 RMK A01 T10811132  RH  067%=      5-min Rain = 0
KCA1 090617Z 30004KT M08/M13 A3031 RMK A01 T10811131  RH  067%=      5-min Rain = 0
KCA1 090618Z 30004KT M08/M13 A3031 RMK A01 T10801130  RH  067%=      5-min Rain = 0
KCA1 090619Z 30004KT M08/M13 A3031 RMK A01 T10801131  RH  067%=      5-min Rain = 0
KCA1 090620Z 31004KT M08/M13 A3031 RMK A01 T10801130  RH  067%=      5-min Rain = 0
KCA1 090621Z 30004KT M08/M13 A3031 RMK A01 T10791130  RH  067%=      5-min Rain = 0
KCA1 090622Z 31004KT M08/M13 A3031 RMK A01 T10791130  RH  067%=      5-min Rain = 0
KCA1 090623Z 31004KT M08/M13 A3031 RMK A01 T10791130  RH  067%=      5-min Rain = 0
KCA1 090624Z 31004KT M08/M13 A3031 RMK A01 T10781130  RH  066%=      5-min Rain = 0
KCA1 090625Z 31004KT M08/M13 A3031 RMK A01 T10781131  RH  066%=      5-min Rain = 0
KCA1 090626Z 31004KT M08/M13 A3031 RMK A01 T10791131  RH  066%=      5-min Rain = 0
KCA1 090627Z 31003KT M08/M13 A3031 RMK A01 T10781131  RH  066%=      5-min Rain = 0
KCA1 090628Z 30004KT M08/M13 A3031 RMK A01 T10781130  RH  066%=      5-min Rain = 0
KCA1 090629Z 30004KT M08/M13 A3031 RMK A01 T10771130  RH  066%=      5-min Rain = 0
KCA1 090630Z 30004KT M08/M13 A3031 RMK A01 T10751129  RH  065%=      5-min Rain = 0
KCA1 090631Z 30004KT M08/M13 A3031 RMK A01 T10751130  RH  065%=      5-min Rain = 0
KCA1 090632Z 30004KT M08/M13 A3031 RMK A01 T10761130  RH  065%=      5-min Rain = 0
KCA1 090633Z 31004KT M08/M13 A3031 RMK A01 T10761131  RH  065%=      5-min Rain = 0
KCA1 090634Z 31004KT M08/M13 A3031 RMK A01 T10771131  RH  065%=      5-min Rain = 0
KCA1 090635Z 30004KT M08/M13 A303 RMK A01 T10781131  RH  065%=      5-min Rain = 0
KCA1 090636Z 30004KT M08/M13 A303 RMK A01 T10781131  RH  066%=      5-min Rain = 0
KCA1 090637Z 30004KT M08/M13 A303 RMK A01 T10781131  RH  066%=      5-min Rain = 0
KCA1 090638Z 30004KT M08/M13 A303 RMK A01 T10791131  RH  066%=      5-min Rain = 0
KCA1 090639Z 30004KT M08/M13 A303 RMK A01 T10791131  RH  066%=      5-min Rain = 0
KCA1 090640Z 31004KT M08/M13 A303 RMK A01 T10791130  RH  066%=      5-min Rain = 0
KCA1 090641Z 31004KT M08/M13 A303 RMK A01 T10791131  RH  067%=      5-min Rain = 0
KCA1 090642Z 31004KT M08/M13 A303 RMK A01 T10801131  RH  067%=      5-min Rain = 0
KCA1 090643Z 31004KT M08/M13 A303 RMK A01 T10801131  RH  067%=      5-min Rain = 0
KCA1 090644Z 31005KT M08/M13 A303 RMK A01 T10811132  RH  067%=      5-min Rain = 0
KCA1 090645Z 32005KT M08/M13 A303 RMK A01 T10811131  RH  067%=      5-min Rain = 0
KCA1 090646Z 32005KT M08/M13 A303 RMK A01 T10821132  RH  067%=      5-min Rain = 0
KCA1 090647Z 32005KT M08/M13 A303 RMK A01 T10821131  RH  067%=      5-min Rain = 0
KCA1 090648Z 32005KT M08/M13 A303 RMK A01 T10821132  RH  067%=      5-min Rain = 0
KCA1 090649Z 32005KT M08/M13 A303 RMK A01 T10831132  RH  068%=      5-min Rain = 0
KCA1 090650Z 32005KT M08/M13 A303 RMK A01 T10821131  RH  068%=      5-min Rain = 0
KCA1 090651Z 33004KT M08/M13 A303 RMK A01 T10821131  RH  068%=      5-min Rain = 0
KCA1 090652Z 33004KT M08/M13 A303 RMK A01 T10811130  RH  068%=      5-min Rain = 0
KCA1 090653Z 32004KT M08/M13 A303 RMK A01 T10801130  RH  068%=      5-min Rain = 0
KCA1 090654Z 31004KT M08/M13 A303 RMK A01 T10801130  RH  067%=      5-min Rain = 0
KCA1 090655Z 31004KT M08/M13 A303 RMK A01 T10791130  RH  067%=      5-min Rain = 0
KCA1 090656Z 30004KT M08/M13 A303 RMK A01 T10781129  RH  067%=      5-min Rain = 0
KCA1 090657Z 29004KT M08/M13 A303 RMK A01 T10761128  RH  066%=      5-min Rain = 0
KCA1 090658Z 29004KT M08/M13 A303 RMK A01 T10761128  RH  066%=      5-min Rain = 0
KCA1 090659Z 29004KT M08/M13 A303 RMK A01 T10761129  RH  066%=      5-min Rain = 0
KCA1 090700Z 30003KT M08/M13 A303 RMK A01 T10761129  RH  065%=      5-min Rain = 0
KCA1 090701Z 30003KT M08/M13 A303 RMK A01 T10761129  RH  065%=      5-min Rain = 0
KCA1 090702Z 30003KT M08/M13 A303 RMK A01 T10751129  RH  065%=      5-min Rain = 0
KCA1 090703Z 30003KT M08/M13 A303 RMK A01 T10751129  RH  065%=      5-min Rain = 0
KCA1 090704Z 30003KT M08/M13 A303 RMK A01 T10751130  RH  065%=      5-min Rain = 0
KCA1 090705Z 32003KT M08/M13 A303 RMK A01 T10751130  RH  065%=      5-min Rain = 0
KCA1 090706Z 32002KT M08/M13 A303 RMK A01 T10751130  RH  065%=      5-min Rain = 0
KCA1 090707Z 31002KT M08/M13 A303 RMK A01 T10751130  RH  065%=      5-min Rain = 0
KCA1 090708Z 33002KT M08/M13 A303 RMK A01 T10751130  RH  065%=      5-min Rain = 0
KCA1 090709Z 33002KT M07/M13 A303 RMK A01 T10741129  RH  065%=      5-min Rain = 0
KCA1 090710Z 34003KT M07/M13 A303 RMK A01 T10741130  RH  065%=      5-min Rain = 0
KCA1 090711Z 34002KT M08/M13 A303 RMK A01 T10751130  RH  065%=      5-min Rain = 0
KCA1 090712Z 35003KT M08/M13 A303 RMK A01 T10751130  RH  065%=      5-min Rain = 0
KCA1 090713Z 35003KT M08/M13 A303 RMK A01 T10751130  RH  065%=      5-min Rain = 0
KCA1 090714Z 34004KT M08/M13 A303 RMK A01 T10751129  RH  065%=      5-min Rain = 0
KCA1 090715Z 34003KT M07/M13 A303 RMK A01 T10741129  RH  065%=      5-min Rain = 0
KCA1 090716Z 34003KT M07/M13 A303 RMK A01 T10731129  RH  065%=      5-min Rain = 0
KCA1 090717Z 31002KT M07/M13 A303 RMK A01 T10741129  RH  064%=      5-min Rain = 0
KCA1 090718Z 32002KT M07/M13 A303 RMK A01 T10741129  RH  065%=      5-min Rain = 0
KCA1 090719Z 30002KT M07/M13 A303 RMK A01 T10741129  RH  065%=      5-min Rain = 0
KCA1 090720Z 28002KT M08/M13 A303 RMK A01 T10751129  RH  065%=      5-min Rain = 0
KCA1 090721Z 29002KT M08/M13 A303 RMK A01 T10751129  RH  065%=      5-min Rain = 0
KCA1 090722Z 28003KT M08/M13 A303 RMK A01 T10751129  RH  066%=      5-min Rain = 0
KCA1 090723Z 28003KT M08/M13 A303 RMK A01 T10761129  RH  066%=      5-min Rain = 0
KCA1 090724Z 28003KT M08/M13 A303 RMK A01 T10771130  RH  066%=      5-min Rain = 0
KCA1 090725Z 28003KT M08/M13 A303 RMK A01 T10781130  RH  066%=      5-min Rain = 0
KCA1 090726Z 28004KT M08/M13 A303 RMK A01 T10791130  RH  067%=      5-min Rain = 0
KCA1 090727Z 27004KT M08/M13 A303 RMK A01 T10801130  RH  067%=      5-min Rain = 0
KCA1 090728Z 27004KT M08/M13 A303 RMK A01 T10801130  RH  068%=      5-min Rain = 0
KCA1 090729Z 28004KT M08/M13 A303 RMK A01 T10801129  RH  068%=      5-min Rain = 0
KCA1 090730Z 28004KT M08/M13 A303 RMK A01 T10781128  RH  068%=      5-min Rain = 0
KCA1 090731Z 28004KT M08/M13 A303 RMK A01 T10781128  RH  067%=      5-min Rain = 0
KCA1 090732Z 29004KT M08/M13 A303 RMK A01 T10771128  RH  067%=      5-min Rain = 0
KCA1 090733Z 30004KT M08/M13 A303 RMK A01 T10781129  RH  067%=      5-min Rain = 0
KCA1 090734Z 30004KT M08/M13 A303 RMK A01 T10791130  RH  067%=      5-min Rain = 0
KCA1 090735Z 30004KT M08/M13 A303 RMK A01 T10801131  RH  067%=      5-min Rain = 0
KCA1 090736Z 30004KT M08/M13 A303 RMK A01 T10811131  RH  068%=      5-min Rain = 0
KCA1 090737Z 30004KT M08/M13 A303 RMK A01 T10821131  RH  068%=      5-min Rain = 0
KCA1 090738Z 30004KT M08/M13 A303 RMK A01 T10831131  RH  068%=      5-min Rain = 0
KCA1 090739Z 30004KT M08/M13 A303 RMK A01 T10841131  RH  069%=      5-min Rain = 0
KCA1 090740Z 30003KT M08/M13 A3029 RMK A01 T10841131  RH  069%=      5-min Rain = 0
KCA1 090741Z 30003KT M08/M13 A3029 RMK A01 T10841130  RH  069%=      5-min Rain = 0
KCA1 090742Z 31003KT M08/M13 A3029 RMK A01 T10841130  RH  069%=      5-min Rain = 0
KCA1 090743Z 31004KT M08/M13 A3029 RMK A01 T10841130  RH  069%=      5-min Rain = 0
KCA1 090744Z 32004KT M08/M13 A3029 RMK A01 T10841131  RH  069%=      5-min Rain = 0
KCA1 090745Z 33004KT M09/M13 A3029 RMK A01 T10851131  RH  069%=      5-min Rain = 0
KCA1 090746Z 33004KT M09/M13 A3029 RMK A01 T10871132  RH  070%=      5-min Rain = 0
KCA1 090747Z 34004KT M09/M13 A3029 RMK A01 T10871132  RH  070%=      5-min Rain = 0
KCA1 090748Z 34004KT M09/M13 A3029 RMK A01 T10881132  RH  070%=      5-min Rain = 0
KCA1 090749Z 35004KT M09/M13 A3029 RMK A01 T10891132  RH  071%=      5-min Rain = 0
KCA1 090750Z 35004KT M09/M13 A3029 RMK A01 T10881131  RH  071%=      5-min Rain = 0
KCA1 090751Z 35005KT M09/M13 A3029 RMK A01 T10871130  RH  071%=      5-min Rain = 0
KCA1 090752Z 35005KT M09/M13 A3029 RMK A01 T10861129  RH  071%=      5-min Rain = 0
KCA1 090753Z 35005KT M09/M13 A3029 RMK A01 T10851128  RH  071%=      5-min Rain = 0
KCA1 090754Z 35004KT M08/M13 A3029 RMK A01 T10831128  RH  070%=      5-min Rain = 0
KCA1 090755Z 35004KT M08/M13 A3029 RMK A01 T10821128  RH  070%=      5-min Rain = 0
KCA1 090756Z 35005KT M08/M13 A3029 RMK A01 T10811128  RH  069%=      5-min Rain = 0
KCA1 090757Z 35004KT M08/M13 A3029 RMK A01 T10801128  RH  069%=      5-min Rain = 0
KCA1 090758Z 34003KT M08/M13 A3029 RMK A01 T10791128  RH  068%=      5-min Rain = 0
KCA1 090759Z 32003KT M08/M13 A3029 RMK A01 T10791128  RH  068%=      5-min Rain = 0
KCA1 090800Z 31004KT M08/M13 A3029 RMK A01 T10781127  RH  068%=      5-min Rain = 0
KCA1 090801Z 31004KT M08/M13 A3029 RMK A01 T10771127  RH  067%=      5-min Rain = 0
KCA1 090802Z 30004KT M08/M13 A3029 RMK A01 T10771128  RH  067%=      5-min Rain = 0
KCA1 090803Z 31004KT M08/M13 A3029 RMK A01 T10771128  RH  066%=      5-min Rain = 0
KCA1 090804Z 31004KT M08/M13 A3029 RMK A01 T10781129  RH  067%=      5-min Rain = 0
KCA1 090805Z 31004KT M08/M13 A303 RMK A01 T10801131  RH  067%=      5-min Rain = 0
KCA1 090806Z 31004KT M08/M13 A303 RMK A01 T10821132  RH  068%=      5-min Rain = 0
KCA1 090807Z 31004KT M08/M13 A303 RMK A01 T10831132  RH  068%=      5-min Rain = 0
KCA1 090808Z 31004KT M09/M13 A303 RMK A01 T10851132  RH  069%=      5-min Rain = 0
KCA1 090809Z 31004KT M09/M13 A303 RMK A01 T10861133  RH  069%=      5-min Rain = 0
KCA1 090810Z 32004KT M09/M13 A303 RMK A01 T10871132  RH  070%=      5-min Rain = 0
KCA1 090811Z 32004KT M09/M13 A303 RMK A01 T10871132  RH  070%=      5-min Rain = 0
KCA1 090812Z 33004KT M09/M13 A303 RMK A01 T10861130  RH  070%=      5-min Rain = 0
KCA1 090813Z 33004KT M08/M13 A303 RMK A01 T10831128  RH  070%=      5-min Rain = 0
KCA1 090814Z 33004KT M08/M13 A303 RMK A01 T10821128  RH  069%=      5-min Rain = 0
KCA1 090815Z 33003KT M08/M13 A303 RMK A01 T10821129  RH  069%=      5-min Rain = 0
KCA1 090816Z 32003KT M08/M13 A303 RMK A01 T10821129  RH  069%=      5-min Rain = 0
KCA1 090817Z 32003KT M08/M13 A303 RMK A01 T10821129  RH  069%=      5-min Rain = 0
KCA1 090818Z 32003KT M08/M13 A303 RMK A01 T10821129  RH  069%=      5-min Rain = 0
KCA1 090819Z 32003KT M08/M13 A303 RMK A01 T10821129  RH  069%=      5-min Rain = 0
KCA1 090820Z 31003KT M08/M13 A303 RMK A01 T10811128  RH  069%=      5-min Rain = 0
KCA1 090821Z 31003KT M08/M13 A303 RMK A01 T10821128  RH  069%=      5-min Rain = 0
KCA1 090822Z 30004KT M08/M13 A303 RMK A01 T10821129  RH  069%=      5-min Rain = 0
KCA1 090823Z 30004KT M08/M13 A303 RMK A01 T10831129  RH  070%=      5-min Rain = 0
KCA1 090824Z 29004KT M09/M13 A303 RMK A01 T10851130  RH  070%=      5-min Rain = 0
KCA1 090825Z 27005KT M09/M13 A303 RMK A01 T10861130  RH  071%=      5-min Rain = 0
KCA1 090826Z 27006KT M09/M13 A303 RMK A01 T10881130  RH  071%=      5-min Rain = 0
KCA1 090827Z 28007KT M09/M13 A303 RMK A01 T10891130  RH  072%=      5-min Rain = 0
KCA1 090828Z 28006KT M09/M13 A303 RMK A01 T10891130  RH  072%=      5-min Rain = 0
KCA1 090829Z 29006KT M09/M13 A303 RMK A01 T10901130  RH  073%=      5-min Rain = 0
KCA1 090830Z 30006KT M09/M13 A303 RMK A01 T10901129  RH  073%=      5-min Rain = 0
KCA1 090831Z 30006KT M09/M13 A303 RMK A01 T10901129  RH  073%=      5-min Rain = 0
KCA1 090832Z 30006KT M09/M13 A303 RMK A01 T10911129  RH  074%=      5-min Rain = 0
KCA1 090833Z 31005KT M09/M13 A303 RMK A01 T10921130  RH  074%=      5-min Rain = 0
KCA1 090834Z 31005KT M09/M13 A303 RMK A01 T10931131  RH  074%=      5-min Rain = 0
KCA1 090835Z 31005KT M09/M13 A303 RMK A01 T10941131  RH  074%=      5-min Rain = 0
KCA1 090836Z 31005KT M10/M13 A303 RMK A01 T10951132  RH  075%=      5-min Rain = 0
KCA1 090837Z 31004KT M10/M13 A303 RMK A01 T10951131  RH  075%=      5-min Rain = 0
KCA1 090838Z 31004KT M10/M13 A303 RMK A01 T10951131  RH  075%=      5-min Rain = 0
KCA1 090839Z 31005KT M10/M13 A303 RMK A01 T10951131  RH  075%=      5-min Rain = 0
KCA1 090840Z 30005KT M10/M13 A303 RMK A01 T10951130  RH  076%=      5-min Rain = 0
KCA1 090841Z 31005KT M10/M13 A303 RMK A01 T10951130  RH  076%=      5-min Rain = 0
KCA1 090842Z 30005KT M10/M13 A303 RMK A01 T10951130  RH  076%=      5-min Rain = 0
KCA1 090843Z 30005KT M10/M13 A303 RMK A01 T10951130  RH  076%=      5-min Rain = 0
KCA1 090844Z 29005KT M10/M13 A303 RMK A01 T10951130  RH  076%=      5-min Rain = 0
KCA1 090845Z 29005KT M10/M13 A303 RMK A01 T10951130  RH  076%=      5-min Rain = 0
KCA1 090846Z 29005KT M10/M13 A303 RMK A01 T10951130  RH  076%=      5-min Rain = 0
KCA1 090847Z 29004KT M10/M13 A303 RMK A01 T10951129  RH  076%=      5-min Rain = 0
KCA1 090848Z 30004KT M10/M13 A303 RMK A01 T10951130  RH  076%=      5-min Rain = 0
KCA1 090849Z 29004KT M10/M13 A303 RMK A01 T10951129  RH  076%=      5-min Rain = 0
KCA1 090850Z 30004KT M09/M13 A303 RMK A01 T10941129  RH  076%=      5-min Rain = 0
KCA1 090851Z 30004KT M09/M13 A303 RMK A01 T10931128  RH  076%=      5-min Rain = 0
KCA1 090852Z 30004KT M09/M13 A303 RMK A01 T10921128  RH  075%=      5-min Rain = 0
KCA1 090853Z 29004KT M09/M13 A303 RMK A01 T10911127  RH  075%=      5-min Rain = 0
KCA1 090854Z 29003KT M09/M13 A303 RMK A01 T10911128  RH  074%=      5-min Rain = 0
KCA1 090855Z 28004KT M09/M13 A303 RMK A01 T10901127  RH  074%=      5-min Rain = 0
KCA1 090856Z 29003KT M09/M13 A303 RMK A01 T10871125  RH  074%=      5-min Rain = 0
KCA1 090857Z 30003KT M09/M13 A303 RMK A01 T10861126  RH  073%=      5-min Rain = 0
KCA1 090858Z 30004KT M09/M13 A303 RMK A01 T10851126  RH  072%=      5-min Rain = 0
KCA1 090859Z 30004KT M09/M13 A303 RMK A01 T10851127  RH  072%=      5-min Rain = 0
KCA1 090900Z 30004KT M09/M13 A303 RMK A01 T10861128  RH  072%=      5-min Rain = 0
KCA1 090901Z 29004KT M09/M13 A303 RMK A01 T10861128  RH  072%=      5-min Rain = 0
KCA1 090902Z 28004KT M09/M13 A303 RMK A01 T10871128  RH  072%=      5-min Rain = 0
KCA1 090903Z 27004KT M09/M13 A303 RMK A01 T10871128  RH  072%=      5-min Rain = 0
KCA1 090904Z 28004KT M09/M13 A3031 RMK A01 T10871128  RH  072%=      5-min Rain = 0
KCA1 090905Z 27004KT M09/M13 A3031 RMK A01 T10881129  RH  072%=      5-min Rain = 0
KCA1 090906Z 28004KT M09/M13 A3031 RMK A01 T10881129  RH  073%=      5-min Rain = 0
KCA1 090907Z 28004KT M09/M13 A3031 RMK A01 T10891129  RH  073%=      5-min Rain = 0
KCA1 090908Z 28004KT M09/M13 A3031 RMK A01 T10901129  RH  074%=      5-min Rain = 0
KCA1 090909Z 28005KT M09/M13 A3031 RMK A01 T10911129  RH  074%=      5-min Rain = 0
KCA1 090910Z 27006KT M09/M13 A3031 RMK A01 T10921128  RH  075%=      5-min Rain = 0
KCA1 090911Z 28006KT M09/M13 A3031 RMK A01 T10921128  RH  075%=      5-min Rain = 0
KCA1 090912Z 29005KT M09/M13 A3031 RMK A01 T10921128  RH  076%=      5-min Rain = 0
KCA1 090913Z 30005KT M09/M13 A3031 RMK A01 T10931128  RH  076%=      5-min Rain = 0
KCA1 090914Z 30005KT M09/M13 A3031 RMK A01 T10931128  RH  076%=      5-min Rain = 0
KCA1 090915Z 29005KT M09/M13 A3031 RMK A01 T10941128  RH  076%=      5-min Rain = 0
KCA1 090916Z 30005KT M09/M13 A3031 RMK A01 T10941128  RH  076%=      5-min Rain = 0
KCA1 090917Z 30005KT M09/M13 A3031 RMK A01 T10941128  RH  076%=      5-min Rain = 0
KCA1 090918Z 30005KT M09/M13 A3031 RMK A01 T10941128  RH  076%=      5-min Rain = 0
KCA1 090919Z 30005KT M09/M13 A303 RMK A01 T10931128  RH  076%=      5-min Rain = 0
KCA1 090920Z 30005KT M09/M13 A303 RMK A01 T10931127  RH  076%=      5-min Rain = 0
KCA1 090921Z 29005KT M09/M13 A303 RMK A01 T10931127  RH  076%=      5-min Rain = 0
KCA1 090922Z 30006KT M09/M13 A303 RMK A01 T10931126  RH  077%=      5-min Rain = 0
KCA1 090923Z 29006KT M09/M13 A303 RMK A01 T10921125  RH  077%=      5-min Rain = 0
KCA1 090924Z 29006KT M09/M13 A303 RMK A01 T10921125  RH  077%=      5-min Rain = 0
KCA1 090925Z 29006KT M09/M12 A303 RMK A01 T10921124  RH  077%=      5-min Rain = 0
KCA1 090926Z 30006KT M09/M12 A303 RMK A01 T10911124  RH  077%=      5-min Rain = 0
KCA1 090927Z 30006KT M09/M12 A303 RMK A01 T10911123  RH  078%=      5-min Rain = 0
KCA1 090928Z 30006KT M09/M12 A303 RMK A01 T10911122  RH  078%=      5-min Rain = 0
KCA1 090929Z 30006KT M09/M12 A3031 RMK A01 T10911122  RH  078%=      5-min Rain = 0
KCA1 090930Z 30006KT M09/M12 A3031 RMK A01 T10911122  RH  078%=      5-min Rain = 0
KCA1 090931Z 30006KT M09/M12 A3031 RMK A01 T10911123  RH  078%=      5-min Rain = 0
KCA1 090932Z 30006KT M09/M12 A3031 RMK A01 T10921123  RH  078%=      5-min Rain = 0
KCA1 090933Z 30006KT M09/M12 A3031 RMK A01 T10931123  RH  079%=      5-min Rain = 0
KCA1 090934Z 29006KT M09/M12 A3031 RMK A01 T10921122  RH  079%=      5-min Rain = 0
KCA1 090935Z 30006KT M09/M12 A3031 RMK A01 T10931121  RH  080%=      5-min Rain = 0
KCA1 090936Z 30006KT M09/M12 A3031 RMK A01 T10931121  RH  080%=      5-min Rain = 0
KCA1 090937Z 31006KT M09/M12 A3031 RMK A01 T10921121  RH  080%=      5-min Rain = 0
KCA1 090938Z 30006KT M09/M12 A3031 RMK A01 T10931122  RH  079%=      5-min Rain = 0
KCA1 090939Z 30006KT M09/M12 A3031 RMK A01 T10931122  RH  079%=      5-min Rain = 0
KCA1 090940Z 31006KT M09/M12 A3031 RMK A01 T10931122  RH  080%=      5-min Rain = 0
KCA1 090941Z 31006KT M09/M12 A3031 RMK A01 T10931122  RH  080%=      5-min Rain = 0
KCA1 090942Z 30006KT M09/M12 A3031 RMK A01 T10931121  RH  080%=      5-min Rain = 0
KCA1 090943Z 30006KT M09/M12 A3031 RMK A01 T10921120  RH  080%=      5-min Rain = 0
KCA1 090944Z 30006KT M09/M12 A3031 RMK A01 T10911118  RH  081%=      5-min Rain = 0
KCA1 090945Z 31005KT M09/M12 A3031 RMK A01 T10901118  RH  080%=      5-min Rain = 0
KCA1 090946Z 31005KT M09/M12 A3031 RMK A01 T10901119  RH  080%=      5-min Rain = 0
KCA1 090947Z 31005KT M09/M12 A3031 RMK A01 T10911119  RH  080%=      5-min Rain = 0
KCA1 090948Z 31005KT M09/M12 A3031 RMK A01 T10921120  RH  080%=      5-min Rain = 0
KCA1 090949Z 31006KT M09/M12 A3031 RMK A01 T10921120  RH  080%=      5-min Rain = 0
KCA1 090950Z 31006KT M09/M12 A3031 RMK A01 T10911120  RH  079%=      5-min Rain = 0
KCA1 090951Z 31006KT M09/M12 A3031 RMK A01 T10901120  RH  079%=      5-min Rain = 0
KCA1 090952Z 31006KT M09/M12 A3031 RMK A01 T10901121  RH  078%=      5-min Rain = 0
KCA1 090953Z 31006KT M09/M12 A3031 RMK A01 T10901122  RH  078%=      5-min Rain = 0
KCA1 090954Z 32006KT M09/M12 A3031 RMK A01 T10911123  RH  078%=      5-min Rain = 0
KCA1 090955Z 32007KT M09/M12 A3031 RMK A01 T10911124  RH  077%=      5-min Rain = 0
KCA1 090956Z 32007KT M09/M12 A3031 RMK A01 T10911124  RH  077%=      5-min Rain = 0
KCA1 090957Z 32007KT M09/M12 A3031 RMK A01 T10911124  RH  077%=      5-min Rain = 0
KCA1 090958Z 32006KT M09/M13 A3031 RMK A01 T10911125  RH  077%=      5-min Rain = 0
KCA1 090959Z 32007KT M09/M12 A3031 RMK A01 T10911124  RH  077%=      5-min Rain = 0
KCA1 091000Z 31007KT M09/M12 A3031 RMK A01 T10901124  RH  077%=      5-min Rain = 0
KCA1 091001Z 31007KT M09/M12 A3031 RMK A01 T10891122  RH  077%=      5-min Rain = 0
KCA1 091002Z 31006KT M09/M12 A3031 RMK A01 T10871122  RH  076%=      5-min Rain = 0
KCA1 091003Z 31006KT M09/M12 A3031 RMK A01 T10861121  RH  076%=      5-min Rain = 0
KCA1 091004Z 31006KT M09/M12 A3031 RMK A01 T10851121  RH  075%=      5-min Rain = 0
KCA1 091005Z 31006KT M08/M12 A3031 RMK A01 T10841121  RH  075%=      5-min Rain = 0
KCA1 091006Z 31006KT M08/M12 A3031 RMK A01 T10831121  RH  074%=      5-min Rain = 0
KCA1 091007Z 31006KT M08/M12 A3031 RMK A01 T10831121  RH  074%=      5-min Rain = 0
KCA1 091008Z 31006KT M08/M12 A3031 RMK A01 T10831121  RH  074%=      5-min Rain = 0
KCA1 091009Z 31006KT M08/M12 A3031 RMK A01 T10821121  RH  073%=      5-min Rain = 0
KCA1 091010Z 30006KT M08/M12 A3031 RMK A01 T10821122  RH  073%=      5-min Rain = 0
KCA1 091011Z 30006KT M08/M12 A3031 RMK A01 T10821122  RH  073%=      5-min Rain = 0
KCA1 091012Z 30006KT M08/M12 A3031 RMK A01 T10821122  RH  073%=      5-min Rain = 0
KCA1 091013Z 30006KT M08/M12 A3031 RMK A01 T10821122  RH  073%=      5-min Rain = 0
KCA1 091014Z 30006KT M08/M12 A3031 RMK A01 T10821122  RH  073%=      5-min Rain = 0
KCA1 091015Z 30006KT M08/M12 A3031 RMK A01 T10831123  RH  073%=      5-min Rain = 0
KCA1 091016Z 30006KT M08/M12 A303 RMK A01 T10831122  RH  073%=      5-min Rain = 0
KCA1 091017Z 31006KT M08/M12 A303 RMK A01 T10831121  RH  074%=      5-min Rain = 0
KCA1 091018Z 31005KT M08/M12 A303 RMK A01 T10821122  RH  073%=      5-min Rain = 0
KCA1 091019Z 31006KT M08/M12 A303 RMK A01 T10831122  RH  073%=      5-min Rain = 0
KCA1 091020Z 30005KT M08/M12 A303 RMK A01 T10831122  RH  073%=      5-min Rain = 0
KCA1 091021Z 30006KT M08/M12 A303 RMK A01 T10831122  RH  073%=      5-min Rain = 0
KCA1 091022Z 30006KT M08/M12 A303 RMK A01 T10831122  RH  073%=      5-min Rain = 0
KCA1 091023Z 30007KT M08/M12 A303 RMK A01 T10821121  RH  074%=      5-min Rain = 0
KCA1 091024Z 30007KT M08/M12 A303 RMK A01 T10821121  RH  074%=      5-min Rain = 0
KCA1 091025Z 30007KT M08/M12 A303 RMK A01 T10821121  RH  073%=      5-min Rain = 0
KCA1 091026Z 30006KT M08/M12 A303 RMK A01 T10811120  RH  073%=      5-min Rain = 0
KCA1 091027Z 30006KT M08/M12 A303 RMK A01 T10811120  RH  073%=      5-min Rain = 0
KCA1 091028Z 30006KT M08/M12 A303 RMK A01 T10811120  RH  073%=      5-min Rain = 0
KCA1 091029Z 30007KT M08/M12 A303 RMK A01 T10811120  RH  073%=      5-min Rain = 0
KCA1 091030Z 30006KT M08/M12 A303 RMK A01 T10801120  RH  073%=      5-min Rain = 0
KCA1 091031Z 30007KT M08/M12 A303 RMK A01 T10811120  RH  074%=      5-min Rain = 0
KCA1 091032Z 29006KT M08/M12 A303 RMK A01 T10811119  RH  074%=      5-min Rain = 0
KCA1 091033Z 29006KT M08/M12 A303 RMK A01 T10801117  RH  074%=      5-min Rain = 0
KCA1 091034Z 29006KT M08/M12 A303 RMK A01 T10801117  RH  074%=      5-min Rain = 0
KCA1 091035Z 30006KT M08/M12 A3031 RMK A01 T10801118  RH  074%=      5-min Rain = 0
KCA1 091036Z 30005KT M08/M12 A3031 RMK A01 T10801117  RH  075%=      5-min Rain = 0
KCA1 091037Z 31005KT M08/M12 A3031 RMK A01 T10811118  RH  075%=      5-min Rain = 0
KCA1 091038Z 31005KT M08/M12 A3031 RMK A01 T10821118  RH  075%=      5-min Rain = 0
KCA1 091039Z 32005KT M08/M12 A3031 RMK A01 T10821118  RH  075%=      5-min Rain = 0
KCA1 091040Z 32005KT M08/M12 A303 RMK A01 T10831118  RH  076%=      5-min Rain = 0
KCA1 091041Z 32005KT M08/M12 A303 RMK A01 T10831117  RH  077%=      5-min Rain = 0
KCA1 091042Z 32005KT M08/M12 A303 RMK A01 T10831116  RH  077%=      5-min Rain = 0
KCA1 091043Z 31005KT M08/M12 A303 RMK A01 T10831116  RH  077%=      5-min Rain = 0
KCA1 091044Z 32005KT M08/M12 A303 RMK A01 T10831116  RH  077%=      5-min Rain = 0
KCA1 091045Z 31005KT M08/M12 A303 RMK A01 T10831117  RH  077%=      5-min Rain = 0
KCA1 091046Z 31005KT M08/M12 A3031 RMK A01 T10831117  RH  077%=      5-min Rain = 0
KCA1 091047Z 30006KT M08/M12 A3031 RMK A01 T10831118  RH  076%=      5-min Rain = 0
KCA1 091048Z 30005KT M08/M12 A3031 RMK A01 T10831118  RH  076%=      5-min Rain = 0
KCA1 091049Z 31005KT M08/M12 A3031 RMK A01 T10831118  RH  076%=      5-min Rain = 0
KCA1 091050Z 31005KT M08/M12 A3031 RMK A01 T10831119  RH  075%=      5-min Rain = 0
KCA1 091051Z 31006KT M08/M12 A3031 RMK A01 T10831120  RH  075%=      5-min Rain = 0
KCA1 091052Z 31005KT M08/M12 A3031 RMK A01 T10831120  RH  075%=      5-min Rain = 0
KCA1 091053Z 31005KT M08/M12 A303 RMK A01 T10841120  RH  075%=      5-min Rain = 0
KCA1 091054Z 31005KT M08/M12 A303 RMK A01 T10841121  RH  075%=      5-min Rain = 0
KCA1 091055Z 31005KT M09/M12 A303 RMK A01 T10851121  RH  075%=      5-min Rain = 0
KCA1 091056Z 31005KT M09/M12 A303 RMK A01 T10851122  RH  075%=      5-min Rain = 0
KCA1 091057Z 31005KT M09/M12 A303 RMK A01 T10851122  RH  075%=      5-min Rain = 0
KCA1 091058Z 31005KT M09/M12 A303 RMK A01 T10851122  RH  075%=      5-min Rain = 0
KCA1 091059Z 31005KT M09/M12 A303 RMK A01 T10851122  RH  074%=      5-min Rain = 0
KCA1 091100Z 31005KT M08/M12 A303 RMK A01 T10841122  RH  074%=      5-min Rain = 0
KCA1 091101Z 31005KT M08/M12 A303 RMK A01 T10841122  RH  074%=      5-min Rain = 0
KCA1 091102Z 31005KT M08/M12 A303 RMK A01 T10841123  RH  074%=      5-min Rain = 0
KCA1 091103Z 31005KT M08/M12 A303 RMK A01 T10841123  RH  074%=      5-min Rain = 0
KCA1 091104Z 31005KT M09/M12 A303 RMK A01 T10851124  RH  074%=      5-min Rain = 0
KCA1 091105Z 31005KT M09/M13 A303 RMK A01 T10871125  RH  074%=      5-min Rain = 0
KCA1 091106Z 31005KT M09/M13 A303 RMK A01 T10871125  RH  074%=      5-min Rain = 0
KCA1 091107Z 31005KT M09/M12 A303 RMK A01 T10871124  RH  074%=      5-min Rain = 0
KCA1 091108Z 30005KT M09/M12 A303 RMK A01 T10861123  RH  075%=      5-min Rain = 0
KCA1 091109Z 29006KT M09/M12 A3031 RMK A01 T10851122  RH  074%=      5-min Rain = 0
KCA1 091110Z 29006KT M08/M12 A3031 RMK A01 T10841122  RH  074%=      5-min Rain = 0
KCA1 091111Z 29006KT M08/M12 A3031 RMK A01 T10841123  RH  074%=      5-min Rain = 0
KCA1 091112Z 29006KT M08/M12 A3031 RMK A01 T10841123  RH  073%=      5-min Rain = 0
KCA1 091113Z 29007KT M08/M12 A3031 RMK A01 T10831122  RH  073%=      5-min Rain = 0
KCA1 091114Z 29007KT M08/M12 A3031 RMK A01 T10831122  RH  073%=      5-min Rain = 0
KCA1 091115Z 30007KT M08/M12 A3031 RMK A01 T10831122  RH  073%=      5-min Rain = 0
KCA1 091116Z 30006KT M08/M12 A3031 RMK A01 T10821122  RH  073%=      5-min Rain = 0
KCA1 091117Z 30006KT M08/M12 A3031 RMK A01 T10811122  RH  073%=      5-min Rain = 0
KCA1 091118Z 30006KT M08/M12 A3031 RMK A01 T10811122  RH  073%=      5-min Rain = 0
KCA1 091119Z 30005KT M08/M12 A3031 RMK A01 T10811122  RH  072%=      5-min Rain = 0
KCA1 091120Z 29005KT M08/M12 A3031 RMK A01 T10811122  RH  072%=      5-min Rain = 0
KCA1 091121Z 28005KT M08/M12 A3031 RMK A01 T10821123  RH  072%=      5-min Rain = 0
KCA1 091122Z 28005KT M08/M12 A3031 RMK A01 T10831123  RH  072%=      5-min Rain = 0
KCA1 091123Z 28005KT M08/M12 A3031 RMK A01 T10831123  RH  073%=      5-min Rain = 0
KCA1 091124Z 27004KT M08/M12 A3031 RMK A01 T10831123  RH  073%=      5-min Rain = 0
KCA1 091125Z 28005KT M08/M12 A3031 RMK A01 T10841124  RH  073%=      5-min Rain = 0
KCA1 091126Z 28005KT M09/M13 A3031 RMK A01 T10851125  RH  073%=      5-min Rain = 0
KCA1 091127Z 28005KT M09/M13 A3031 RMK A01 T10861125  RH  073%=      5-min Rain = 0
KCA1 091128Z 29005KT M09/M13 A3031 RMK A01 T10861125  RH  074%=      5-min Rain = 0
KCA1 091129Z 29004KT M09/M12 A3031 RMK A01 T10861124  RH  074%=      5-min Rain = 0
KCA1 091130Z 28005KT M09/M12 A3031 RMK A01 T10861124  RH  074%=      5-min Rain = 0
KCA1 091131Z 28004KT M09/M12 A3031 RMK A01 T10861124  RH  074%=      5-min Rain = 0
KCA1 091132Z 28004KT M09/M13 A3031 RMK A01 T10871125  RH  074%=      5-min Rain = 0
KCA1 091133Z 29004KT M09/M13 A3031 RMK A01 T10881125  RH  074%=      5-min Rain = 0
KCA1 091134Z 29004KT M09/M13 A3031 RMK A01 T10881125  RH  075%=      5-min Rain = 0
KCA1 091135Z 30004KT M09/M13 A3031 RMK A01 T10891125  RH  075%=      5-min Rain = 0
KCA1 091136Z 31004KT M09/M13 A3031 RMK A01 T10881125  RH  075%=      5-min Rain = 0
KCA1 091137Z 31005KT M09/M12 A3031 RMK A01 T10881124  RH  075%=      5-min Rain = 0
KCA1 091138Z 31004KT M09/M12 A3031 RMK A01 T10871123  RH  075%=      5-min Rain = 0
KCA1 091139Z 30005KT M09/M12 A3031 RMK A01 T10871123  RH  075%=      5-min Rain = 0
KCA1 091140Z 29005KT M09/M12 A3031 RMK A01 T10861123  RH  075%=      5-min Rain = 0
KCA1 091141Z 29006KT M09/M12 A3031 RMK A01 T10861123  RH  075%=      5-min Rain = 0
KCA1 091142Z 28006KT M09/M12 A3031 RMK A01 T10861123  RH  075%=      5-min Rain = 0
KCA1 091143Z 28005KT M09/M12 A3031 RMK A01 T10861123  RH  075%=      5-min Rain = 0
KCA1 091144Z 28005KT M09/M12 A3031 RMK A01 T10861122  RH  075%=      5-min Rain = 0
KCA1 091145Z 29005KT M09/M12 A3031 RMK A01 T10861122  RH  075%=      5-min Rain = 0
KCA1 091146Z 29004KT M09/M12 A3031 RMK A01 T10871122  RH  076%=      5-min Rain = 0
KCA1 091147Z 30004KT M09/M12 A3031 RMK A01 T10881122  RH  076%=      5-min Rain = 0
KCA1 091148Z 30005KT M09/M12 A3031 RMK A01 T10881122  RH  076%=      5-min Rain = 0
KCA1 091149Z 30004KT M09/M12 A3031 RMK A01 T10891122  RH  077%=      5-min Rain = 0
KCA1 091150Z 31005KT M09/M12 A3031 RMK A01 T10891122  RH  077%=      5-min Rain = 0
KCA1 091151Z 31005KT M09/M12 A3031 RMK A01 T10891123  RH  077%=      5-min Rain = 0
KCA1 091152Z 31005KT M09/M12 A3031 RMK A01 T10901123  RH  077%=      5-min Rain = 0
KCA1 091153Z 31005KT M09/M12 A3031 RMK A01 T10901123  RH  077%=      5-min Rain = 0
KCA1 091154Z 30005KT M09/M12 A3031 RMK A01 T10901123  RH  077%=      5-min Rain = 0
KCA1 091155Z 30006KT M09/M12 A3031 RMK A01 T10911124  RH  077%=      5-min Rain = 0
KCA1 091156Z 30006KT M09/M12 A3031 RMK A01 T10911124  RH  077%=      5-min Rain = 0
KCA1 091157Z 31006KT M09/M12 A3031 RMK A01 T10921124  RH  077%=      5-min Rain = 0
KCA1 091158Z 31005KT M09/M12 A3031 RMK A01 T10921124  RH  078%=      5-min Rain = 0
KCA1 091159Z 31005KT M09/M12 A3031 RMK A01 T10911123  RH  078%=      5-min Rain = 0
KCA1 091200Z 31005KT M09/M12 A3031 RMK A01 T10911123  RH  078%=      5-min Rain = 0
KCA1 091201Z 30004KT M09/M12 A3031 RMK A01 T10921124  RH  078%=      5-min Rain = 0
KCA1 091202Z 30004KT M09/M12 A3031 RMK A01 T10911123  RH  078%=      5-min Rain = 0
KCA1 091203Z 29005KT M09/M12 A3031 RMK A01 T10911123  RH  078%=      5-min Rain = 0
KCA1 091204Z 29006KT M09/M12 A3031 RMK A01 T10901122  RH  078%=      5-min Rain = 0
KCA1 091205Z 29006KT M09/M12 A3031 RMK A01 T10901122  RH  077%=      5-min Rain = 0
KCA1 091206Z 30007KT M09/M12 A3031 RMK A01 T10891121  RH  077%=      5-min Rain = 0
KCA1 091207Z 30006KT M09/M12 A3031 RMK A01 T10881121  RH  077%=      5-min Rain = 0
KCA1 091208Z 30005KT M09/M12 A3031 RMK A01 T10871121  RH  077%=      5-min Rain = 0
KCA1 091209Z 30005KT M09/M12 A3031 RMK A01 T10871121  RH  077%=      5-min Rain = 0
KCA1 091210Z 30005KT M09/M12 A3031 RMK A01 T10881122  RH  076%=      5-min Rain = 0
KCA1 091211Z 29005KT M09/M12 A3031 RMK A01 T10891123  RH  076%=      5-min Rain = 0
KCA1 091212Z 29006KT M09/M12 A3031 RMK A01 T10891123  RH  076%=      5-min Rain = 0
KCA1 091213Z 29006KT M09/M12 A3031 RMK A01 T10891122  RH  077%=      5-min Rain = 0
KCA1 091214Z 29007KT M09/M12 A3031 RMK A01 T10891123  RH  076%=      5-min Rain = 0
KCA1 091215Z 29006KT M09/M12 A3031 RMK A01 T10891123  RH  076%=      5-min Rain = 0
KCA1 091216Z 29006KT M09/M12 A3031 RMK A01 T10891123  RH  076%=      5-min Rain = 0
KCA1 091217Z 30006KT M09/M12 A3031 RMK A01 T10881123  RH  076%=      5-min Rain = 0
KCA1 091218Z 30006KT M09/M12 A3031 RMK A01 T10891123  RH  076%=      5-min Rain = 0
KCA1 091219Z 30006KT M09/M12 A3031 RMK A01 T10881123  RH  076%=      5-min Rain = 0
KCA1 091220Z 30005KT M09/M12 A3031 RMK A01 T10881123  RH  076%=      5-min Rain = 0
KCA1 091221Z 29005KT M09/M12 A3031 RMK A01 T10891124  RH  076%=      5-min Rain = 0
KCA1 091222Z 29005KT M09/M12 A3031 RMK A01 T10891124  RH  076%=      5-min Rain = 0
KCA1 091223Z 29005KT M09/M12 A3031 RMK A01 T10891124  RH  076%=      5-min Rain = 0
KCA1 091224Z 30005KT M09/M12 A3031 RMK A01 T10901124  RH  076%=      5-min Rain = 0
KCA1 091225Z 30005KT M09/M13 A3031 RMK A01 T10901125  RH  076%=      5-min Rain = 0
KCA1 091226Z 30004KT M09/M12 A3031 RMK A01 T10901124  RH  076%=      5-min Rain = 0
KCA1 091227Z 31005KT M09/M13 A3031 RMK A01 T10911125  RH  076%=      5-min Rain = 0
KCA1 091228Z 30005KT M09/M13 A3031 RMK A01 T10911125  RH  076%=      5-min Rain = 0
KCA1 091229Z 30005KT M09/M13 A3031 RMK A01 T10911125  RH  077%=      5-min Rain = 0
KCA1 091230Z 30005KT M09/M13 A3031 RMK A01 T10921126  RH  077%=      5-min Rain = 0
KCA1 091231Z 30005KT M09/M13 A3031 RMK A01 T10921125  RH  077%=      5-min Rain = 0
KCA1 091232Z 30006KT M09/M13 A3031 RMK A01 T10921125  RH  077%=      5-min Rain = 0
KCA1 091233Z 30006KT M09/M12 A3031 RMK A01 T10921124  RH  077%=      5-min Rain = 0
KCA1 091234Z 30006KT M09/M12 A3031 RMK A01 T10911124  RH  077%=      5-min Rain = 0
KCA1 091235Z 31006KT M09/M12 A3031 RMK A01 T10911123  RH  077%=      5-min Rain = 0
KCA1 091236Z 31005KT M09/M12 A3031 RMK A01 T10901123  RH  077%=      5-min Rain = 0
KCA1 091237Z 31006KT M09/M12 A3031 RMK A01 T10911124  RH  077%=      5-min Rain = 0
KCA1 091238Z 30006KT M09/M13 A3031 RMK A01 T10911125  RH  077%=      5-min Rain = 0
KCA1 091239Z 30007KT M09/M12 A3031 RMK A01 T10911124  RH  077%=      5-min Rain = 0
KCA1 091240Z 30006KT M09/M12 A3031 RMK A01 T10911124  RH  077%=      5-min Rain = 0
KCA1 091241Z 30006KT M09/M12 A3032 RMK A01 T10911124  RH  077%=      5-min Rain = 0
KCA1 091242Z 30006KT M09/M12 A3032 RMK A01 T10911124  RH  077%=      5-min Rain = 0
KCA1 091243Z 30006KT M09/M13 A3032 RMK A01 T10911125  RH  077%=      5-min Rain = 0
KCA1 091244Z 31006KT M09/M13 A3032 RMK A01 T10921125  RH  077%=      5-min Rain = 0
KCA1 091245Z 30006KT M09/M13 A3032 RMK A01 T10921125  RH  077%=      5-min Rain = 0
KCA1 091246Z 31006KT M09/M13 A3032 RMK A01 T10931125  RH  077%=      5-min Rain = 0
KCA1 091247Z 31006KT M09/M13 A3032 RMK A01 T10931125  RH  077%=      5-min Rain = 0
KCA1 091248Z 31005KT M09/M13 A3032 RMK A01 T10931125  RH  078%=      5-min Rain = 0
KCA1 091249Z 31005KT M09/M13 A3032 RMK A01 T10931125  RH  078%=      5-min Rain = 0
KCA1 091250Z 31005KT M09/M13 A3032 RMK A01 T10941125  RH  078%=      5-min Rain = 0
KCA1 091251Z 31006KT M09/M13 A3032 RMK A01 T10941125  RH  078%=      5-min Rain = 0
KCA1 091252Z 31006KT M09/M13 A3032 RMK A01 T10941125  RH  078%=      5-min Rain = 0
KCA1 091253Z 31006KT M09/M13 A3032 RMK A01 T10941125  RH  078%=      5-min Rain = 0
KCA1 091254Z 31007KT M09/M13 A3032 RMK A01 T10941125  RH  079%=      5-min Rain = 0
KCA1 091255Z 31007KT M09/M12 A3032 RMK A01 T10941124  RH  079%=      5-min Rain = 0
KCA1 091256Z 31007KT M09/M12 A3032 RMK A01 T10941124  RH  079%=      5-min Rain = 0
KCA1 091257Z 31008KT M09/M12 A3032 RMK A01 T10941123  RH  079%=      5-min Rain = 0
KCA1 091258Z 31007KT M09/M12 A3032 RMK A01 T10921122  RH  079%=      5-min Rain = 0
KCA1 091259Z 31008KT M09/M12 A3032 RMK A01 T10921122  RH  079%=      5-min Rain = 0
KCA1 091300Z 31008KT M09/M12 A3032 RMK A01 T10911122  RH  078%=      5-min Rain = 0
KCA1 091301Z 31007KT M09/M12 A3032 RMK A01 T10901121  RH  078%=      5-min Rain = 0
KCA1 091302Z 31007KT M09/M12 A3032 RMK A01 T10901122  RH  078%=      5-min Rain = 0
KCA1 091303Z 31007KT M09/M12 A3032 RMK A01 T10891121  RH  077%=      5-min Rain = 0
KCA1 091304Z 31007KT M09/M12 A3032 RMK A01 T10891121  RH  077%=      5-min Rain = 0
KCA1 091305Z 31007KT M09/M12 A3032 RMK A01 T10881121  RH  077%=      5-min Rain = 0
KCA1 091306Z 31007KT M09/M12 A3032 RMK A01 T10881121  RH  077%=      5-min Rain = 0
KCA1 091307Z 31007KT M09/M12 A3032 RMK A01 T10881121  RH  077%=      5-min Rain = 0
KCA1 091308Z 31007KT M09/M12 A3032 RMK A01 T10881122  RH  077%=      5-min Rain = 0
KCA1 091309Z 31007KT M09/M12 A3032 RMK A01 T10881122  RH  076%=      5-min Rain = 0
KCA1 091310Z 31007KT M09/M12 A3032 RMK A01 T10871121  RH  076%=      5-min Rain = 0
KCA1 091311Z 31007KT M09/M12 A3032 RMK A01 T10871121  RH  076%=      5-min Rain = 0
KCA1 091312Z 31007KT M09/M12 A3032 RMK A01 T10871122  RH  076%=      5-min Rain = 0
KCA1 091313Z 31006KT M09/M12 A3032 RMK A01 T10871122  RH  076%=      5-min Rain = 0
KCA1 091314Z 31007KT M09/M12 A3032 RMK A01 T10871122  RH  076%=      5-min Rain = 0
KCA1 091315Z 31006KT M09/M12 A3032 RMK A01 T10871122  RH  076%=      5-min Rain = 0
KCA1 091316Z 31007KT M09/M12 A3032 RMK A01 T10871122  RH  076%=      5-min Rain = 0
KCA1 091317Z 31007KT M09/M12 A3032 RMK A01 T10871122  RH  076%=      5-min Rain = 0
KCA1 091318Z 31006KT M09/M12 A3032 RMK A01 T10881122  RH  076%=      5-min Rain = 0
KCA1 091319Z 31006KT M09/M12 A3032 RMK A01 T10881122  RH  076%=      5-min Rain = 0
KCA1 091320Z 31006KT M09/M12 A3032 RMK A01 T10881122  RH  077%=      5-min Rain = 0
KCA1 091321Z 31006KT M09/M12 A3032 RMK A01 T10881122  RH  077%=      5-min Rain = 0
KCA1 091322Z 31006KT M09/M12 A3033 RMK A01 T10891122  RH  077%=      5-min Rain = 0
KCA1 091323Z 31006KT M09/M12 A3033 RMK A01 T10881121  RH  077%=      5-min Rain = 0
KCA1 091324Z 30006KT M09/M12 A3033 RMK A01 T10881121  RH  077%=      5-min Rain = 0
KCA1 091325Z 30006KT M09/M12 A3033 RMK A01 T10891121  RH  077%=      5-min Rain = 0
KCA1 091326Z 31006KT M09/M12 A3033 RMK A01 T10891121  RH  077%=      5-min Rain = 0
KCA1 091327Z 31006KT M09/M12 A3033 RMK A01 T10891121  RH  077%=      5-min Rain = 0
KCA1 091328Z 31006KT M09/M12 A3033 RMK A01 T10891122  RH  077%=      5-min Rain = 0
KCA1 091329Z 31006KT M09/M12 A3033 RMK A01 T10901122  RH  077%=      5-min Rain = 0
KCA1 091330Z 31006KT M09/M12 A3033 RMK A01 T10911122  RH  078%=      5-min Rain = 0
KCA1 091331Z 31006KT M09/M12 A3033 RMK A01 T10911122  RH  078%=      5-min Rain = 0
KCA1 091332Z 31006KT M09/M12 A3033 RMK A01 T10911122  RH  078%=      5-min Rain = 0
KCA1 091333Z 30006KT M09/M12 A3033 RMK A01 T10911122  RH  078%=      5-min Rain = 0
KCA1 091334Z 30006KT M09/M12 A3033 RMK A01 T10911122  RH  078%=      5-min Rain = 0
KCA1 091335Z 30006KT M09/M12 A3033 RMK A01 T10901122  RH  078%=      5-min Rain = 0
KCA1 091336Z 30006KT M09/M12 A3033 RMK A01 T10901122  RH  078%=      5-min Rain = 0
KCA1 091337Z 30007KT M09/M12 A3033 RMK A01 T10891122  RH  077%=      5-min Rain = 0
KCA1 091338Z 30007KT M09/M12 A3033 RMK A01 T10901122  RH  077%=      5-min Rain = 0
KCA1 091339Z 30006KT M09/M12 A3033 RMK A01 T10891122  RH  077%=      5-min Rain = 0
KCA1 091340Z 30006KT M09/M12 A3033 RMK A01 T10891122  RH  077%=      5-min Rain = 0
KCA1 091341Z 30007KT M09/M12 A3033 RMK A01 T10891123  RH  077%=      5-min Rain = 0
KCA1 091342Z 30007KT M09/M12 A3033 RMK A01 T10901123  RH  077%=      5-min Rain = 0
KCA1 091343Z 30006KT M09/M12 A3033 RMK A01 T10891121  RH  077%=      5-min Rain = 0
KCA1 091344Z 30006KT M09/M12 A3033 RMK A01 T10881121  RH  077%=      5-min Rain = 0
KCA1 091345Z 30007KT M09/M12 A3033 RMK A01 T10871120  RH  077%=      5-min Rain = 0
KCA1 091346Z 30007KT M09/M12 A3033 RMK A01 T10861120  RH  077%=      5-min Rain = 0
KCA1 091347Z 29007KT M09/M12 A3033 RMK A01 T10861119  RH  077%=      5-min Rain = 0
KCA1 091348Z 29007KT M09/M12 A3033 RMK A01 T10851118  RH  077%=      5-min Rain = 0
KCA1 091349Z 29008KT M08/M12 A3033 RMK A01 T10841117  RH  077%=      5-min Rain = 0
KCA1 091350Z 30006KT M08/M12 A3033 RMK A01 T10821116  RH  077%=      5-min Rain = 0
KCA1 091351Z 30006KT M08/M12 A3033 RMK A01 T10821117  RH  076%=      5-min Rain = 0
KCA1 091352Z 30006KT M08/M12 A3033 RMK A01 T10821117  RH  076%=      5-min Rain = 0
KCA1 091353Z 29007KT M08/M12 A3033 RMK A01 T10821117  RH  076%=      5-min Rain = 0
KCA1 091354Z 29007KT M08/M12 A3033 RMK A01 T10821117  RH  076%=      5-min Rain = 0
KCA1 091355Z 29006KT M08/M12 A3033 RMK A01 T10821117  RH  076%=      5-min Rain = 0
KCA1 091356Z 29006KT M08/M12 A3033 RMK A01 T10821117  RH  076%=      5-min Rain = 0
KCA1 091357Z 30006KT M08/M12 A3033 RMK A01 T10821117  RH  076%=      5-min Rain = 0
KCA1 091358Z 30007KT M08/M12 A3033 RMK A01 T10821117  RH  076%=      5-min Rain = 0
KCA1 091359Z 30007KT M08/M12 A3033 RMK A01 T10821117  RH  076%=      5-min Rain = 0
KCA1 091400Z 30006KT M08/M12 A3033 RMK A01 T10821116  RH  076%=      5-min Rain = 0
KCA1 091401Z 30006KT M08/M12 A3034 RMK A01 T10811116  RH  076%=      5-min Rain = 0
KCA1 091402Z 30006KT M08/M12 A3034 RMK A01 T10821117  RH  076%=      5-min Rain = 0
KCA1 091403Z 31006KT M08/M12 A3034 RMK A01 T10811116  RH  076%=      5-min Rain = 0
KCA1 091404Z 30006KT M08/M12 A3034 RMK A01 T10801116  RH  076%=      5-min Rain = 0
KCA1 091405Z 30006KT M08/M12 A3034 RMK A01 T10801116  RH  075%=      5-min Rain = 0
KCA1 091406Z 30006KT M08/M12 A3034 RMK A01 T10801116  RH  075%=      5-min Rain = 0
KCA1 091407Z 31006KT M08/M12 A3034 RMK A01 T10791116  RH  075%=      5-min Rain = 0
KCA1 091408Z 30006KT M08/M12 A3034 RMK A01 T10791116  RH  074%=      5-min Rain = 0
KCA1 091409Z 30006KT M08/M12 A3034 RMK A01 T10791117  RH  074%=      5-min Rain = 0
KCA1 091410Z 30006KT M08/M12 A3034 RMK A01 T10781117  RH  074%=      5-min Rain = 0
KCA1 091411Z 30006KT M08/M12 A3034 RMK A01 T10781116  RH  074%=      5-min Rain = 0
KCA1 091412Z 30007KT M08/M12 A3034 RMK A01 T10781116  RH  074%=      5-min Rain = 0
KCA1 091413Z 30006KT M08/M12 A3034 RMK A01 T10771115  RH  074%=      5-min Rain = 0
KCA1 091414Z 30007KT M08/M12 A3034 RMK A01 T10761115  RH  074%=      5-min Rain = 0
KCA1 091415Z 29006KT M08/M12 A3034 RMK A01 T10761115  RH  073%=      5-min Rain = 0
KCA1 091416Z 30006KT M08/M12 A3034 RMK A01 T10751115  RH  073%=      5-min Rain = 0
KCA1 091417Z 30006KT M08/M11 A3034 RMK A01 T10751114  RH  073%=      5-min Rain = 0
KCA1 091418Z 29007KT M07/M11 A3034 RMK A01 T10741114  RH  073%=      5-min Rain = 0
KCA1 091419Z 29007KT M07/M11 A3034 RMK A01 T10741114  RH  073%=      5-min Rain = 0
KCA1 091420Z 29007KT M07/M11 A3034 RMK A01 T10731113  RH  073%=      5-min Rain = 0
KCA1 091421Z 29007KT M07/M11 A3034 RMK A01 T10731113  RH  073%=      5-min Rain = 0
KCA1 091422Z 29007KT M07/M11 A3034 RMK A01 T10731113  RH  073%=      5-min Rain = 0
KCA1 091423Z 29007KT M07/M11 A3034 RMK A01 T10721112  RH  073%=      5-min Rain = 0
KCA1 091424Z 29006KT M07/M11 A3034 RMK A01 T10721112  RH  073%=      5-min Rain = 0
KCA1 091425Z 29006KT M07/M11 A3034 RMK A01 T10711111  RH  073%=      5-min Rain = 0
KCA1 091426Z 29007KT M07/M11 A3034 RMK A01 T10711111  RH  073%=      5-min Rain = 0
KCA1 091427Z 29007KT M07/M11 A3034 RMK A01 T10701110  RH  073%=      5-min Rain = 0
KCA1 091428Z 29007KT M07/M11 A3034 RMK A01 T10691110  RH  073%=      5-min Rain = 0
KCA1 091429Z 29006KT M07/M11 A3034 RMK A01 T10691109  RH  073%=      5-min Rain = 0
KCA1 091430Z 29007KT M07/M11 A3034 RMK A01 T10681109  RH  073%=      5-min Rain = 0
KCA1 091431Z 29007KT M07/M11 A3034 RMK A01 T10681109  RH  073%=      5-min Rain = 0
KCA1 091432Z 29007KT M07/M11 A3034 RMK A01 T10671108  RH  073%=      5-min Rain = 0
KCA1 091433Z 29008KT M07/M11 A3034 RMK A01 T10661107  RH  072%=      5-min Rain = 0
KCA1 091434Z 29007KT M07/M11 A3034 RMK A01 T10661107  RH  072%=      5-min Rain = 0
KCA1 091435Z 29007KT M07/M11 A3034 RMK A01 T10651107  RH  072%=      5-min Rain = 0
KCA1 091436Z 29008KT M06/M11 A3034 RMK A01 T10641106  RH  072%=      5-min Rain = 0
KCA1 091437Z 29009KT M06/M11 A3034 RMK A01 T10631106  RH  072%=      5-min Rain = 0
KCA1 091438Z 29008KT M06/M11 A3034 RMK A01 T10621105  RH  072%=      5-min Rain = 0
KCA1 091439Z 29008KT M06/M11 A3034 RMK A01 T10621105  RH  071%=      5-min Rain = 0
KCA1 091440Z 29008KT M06/M11 A3034 RMK A01 T10611105  RH  071%=      5-min Rain = 0
KCA1 091441Z 29006KT M06/M10 A3034 RMK A01 T10601104  RH  071%=      5-min Rain = 0
KCA1 091442Z 28008KT M06/M10 A3034 RMK A01 T10591103  RH  071%=      5-min Rain = 0
KCA1 091443Z 28009KT M06/M10 A3034 RMK A01 T10591103  RH  071%=      5-min Rain = 0
KCA1 091444Z 28008KT M06/M10 A3034 RMK A01 T10591104  RH  070%=      5-min Rain = 0
KCA1 091445Z 28008KT M06/M10 A3034 RMK A01 T10581104  RH  070%=      5-min Rain = 0
KCA1 091446Z 29008KT M06/M10 A3034 RMK A01 T10571103  RH  070%=      5-min Rain = 0
KCA1 091447Z 29008KT M06/M10 A3034 RMK A01 T10561102  RH  070%=      5-min Rain = 0
KCA1 091448Z 29009KT M06/M10 A3034 RMK A01 T10561102  RH  070%=      5-min Rain = 0
KCA1 091449Z 29009KT M06/M10 A3034 RMK A01 T10561102  RH  070%=      5-min Rain = 0
KCA1 091450Z 29008KT M06/M10 A3034 RMK A01 T10561102  RH  070%=      5-min Rain = 0
KCA1 091451Z 29007KT M06/M10 A3034 RMK A01 T10551102  RH  070%=      5-min Rain = 0
KCA1 091452Z 29008KT M05/M10 A3034 RMK A01 T10541101  RH  070%=      5-min Rain = 0
KCA1 091453Z 29008KT M05/M10 A3034 RMK A01 T10531100  RH  070%=      5-min Rain = 0
KCA1 091454Z 29007KT M05/M10 A3035 RMK A01 T10531100  RH  070%=      5-min Rain = 0
KCA1 091455Z 29007KT M05/M10 A3035 RMK A01 T10521099  RH  070%=      5-min Rain = 0
KCA1 091456Z 28007KT M05/M10 A3034 RMK A01 T10501098  RH  070%=      5-min Rain = 0
KCA1 091457Z 29006KT M05/M10 A3035 RMK A01 T10491096  RH  069%=      5-min Rain = 0
KCA1 091458Z 29008KT M05/M10 A3035 RMK A01 T10471096  RH  069%=      5-min Rain = 0
KCA1 091459Z 29006KT M05/M10 A3035 RMK A01 T10471097  RH  068%=      5-min Rain = 0
KCA1 091500Z 28007KT M05/M10 A3035 RMK A01 T10471097  RH  068%=      5-min Rain = 0
KCA1 091501Z 29006KT M05/M10 A3035 RMK A01 T10461096  RH  068%=      5-min Rain = 0
KCA1 091502Z 28007KT M05/M10 A3035 RMK A01 T10451095  RH  068%=      5-min Rain = 0
KCA1 091503Z 28007KT M04/M09 A3035 RMK A01 T10441094  RH  068%=      5-min Rain = 0
KCA1 091504Z 28007KT M04/M10 A3035 RMK A01 T10441095  RH  068%=      5-min Rain = 0
KCA1 091505Z 27007KT M04/M10 A3035 RMK A01 T10441095  RH  068%=      5-min Rain = 0
KCA1 091506Z 28007KT M04/M09 A3035 RMK A01 T10441094  RH  068%=      5-min Rain = 0
KCA1 091507Z 27008KT M04/M09 A3035 RMK A01 T10431094  RH  068%=      5-min Rain = 0
KCA1 091508Z 27007KT M04/M09 A3035 RMK A01 T10431094  RH  068%=      5-min Rain = 0
KCA1 091509Z 28008KT M04/M09 A3035 RMK A01 T10411093  RH  068%=      5-min Rain = 0
KCA1 091510Z 29007KT M04/M09 A3035 RMK A01 T10411093  RH  067%=      5-min Rain = 0
KCA1 091511Z 28007KT M04/M09 A3035 RMK A01 T10411094  RH  067%=      5-min Rain = 0
KCA1 091512Z 28005KT M04/M09 A3035 RMK A01 T10401092  RH  067%=      5-min Rain = 0
KCA1 091513Z 28006KT M04/M09 A3035 RMK A01 T10381090  RH  067%=      5-min Rain = 0
KCA1 091514Z 28006KT M04/M09 A3035 RMK A01 T10371091  RH  067%=      5-min Rain = 0
KCA1 091515Z 28006KT M04/M09 A3035 RMK A01 T10371091  RH  066%=      5-min Rain = 0
KCA1 091516Z 28006KT M04/M09 A3035 RMK A01 T10361090  RH  066%=      5-min Rain = 0
KCA1 091517Z 28009KT M04/M09 A3035 RMK A01 T10351090  RH  066%=      5-min Rain = 0
KCA1 091518Z 28008KT M03/M09 A3035 RMK A01 T10341091  RH  065%=      5-min Rain = 0
KCA1 091519Z 28007KT M04/M09 A3035 RMK A01 T10351091  RH  065%=      5-min Rain = 0
KCA1 091520Z 29008KT M04/M09 A3035 RMK A01 T10351091  RH  065%=      5-min Rain = 0
KCA1 091521Z 29007KT M03/M09 A3035 RMK A01 T10341090  RH  065%=      5-min Rain = 0
KCA1 091522Z 29006KT M03/M09 A3035 RMK A01 T10341090  RH  065%=      5-min Rain = 0
KCA1 091523Z 27006KT M03/M09 A3035 RMK A01 T10331090  RH  065%=      5-min Rain = 0
KCA1 091524Z 28005KT M03/M09 A3035 RMK A01 T10311088  RH  065%=      5-min Rain = 0
KCA1 091525Z 29007KT M03/M09 A3035 RMK A01 T10301087  RH  064%=      5-min Rain = 0
KCA1 091526Z 29007KT M03/M09 A3035 RMK A01 T10301089  RH  064%=      5-min Rain = 0
KCA1 091527Z 28006KT M03/M09 A3036 RMK A01 T10301090  RH  063%=      5-min Rain = 0
KCA1 091528Z 28008KT M03/M09 A3036 RMK A01 T10291088  RH  064%=      5-min Rain = 0
KCA1 091529Z 28008KT M03/M09 A3036 RMK A01 T10291089  RH  063%=      5-min Rain = 0
KCA1 091530Z 28007KT M03/M09 A3036 RMK A01 T10291089  RH  063%=      5-min Rain = 0
KCA1 091531Z 28007KT M03/M09 A3035 RMK A01 T10291089  RH  064%=      5-min Rain = 0
KCA1 091532Z 29007KT M03/M09 A3035 RMK A01 T10291089  RH  064%=      5-min Rain = 0
KCA1 091533Z 28008KT M03/M09 A3036 RMK A01 T10281087  RH  064%=      5-min Rain = 0
KCA1 091534Z 28006KT M03/M09 A3036 RMK A01 T10271088  RH  063%=      5-min Rain = 0
KCA1 091535Z 29007KT M03/M09 A3036 RMK A01 T10261087  RH  063%=      5-min Rain = 0
KCA1 091536Z 29005KT M03/M09 A3036 RMK A01 T10261087  RH  063%=      5-min Rain = 0
KCA1 091537Z 27006KT M03/M09 A3036 RMK A01 T10251086  RH  063%=      5-min Rain = 0
KCA1 091538Z 28007KT M02/M09 A3036 RMK A01 T10231085  RH  063%=      5-min Rain = 0
KCA1 091539Z 29006KT M02/M09 A3036 RMK A01 T10221086  RH  062%=      5-min Rain = 0
KCA1 091540Z 29006KT M02/M09 A3036 RMK A01 T10231087  RH  062%=      5-min Rain = 0
KCA1 091541Z 29006KT M02/M09 A3036 RMK A01 T10221086  RH  062%=      5-min Rain = 0
KCA1 091542Z 29005KT M02/M09 A3036 RMK A01 T10221086  RH  062%=      5-min Rain = 0
KCA1 091543Z 28005KT M02/M08 A3036 RMK A01 T10201084  RH  062%=      5-min Rain = 0
KCA1 091544Z 28006KT M02/M08 A3036 RMK A01 T10181083  RH  061%=      5-min Rain = 0
KCA1 091545Z 29006KT M02/M08 A3036 RMK A01 T10171084  RH  061%=      5-min Rain = 0
KCA1 091546Z 28006KT M02/M08 A3036 RMK A01 T10161083  RH  060%=      5-min Rain = 0
KCA1 091547Z 27005KT M02/M08 A3036 RMK A01 T10161084  RH  060%=      5-min Rain = 0
KCA1 091548Z 28005KT M01/M08 A3036 RMK A01 T10141083  RH  060%=      5-min Rain = 0
KCA1 091549Z 28005KT M01/M08 A3036 RMK A01 T10141084  RH  059%=      5-min Rain = 0
KCA1 091550Z 27005KT M01/M08 A3036 RMK A01 T10141084  RH  059%=      5-min Rain = 0
KCA1 091551Z 30006KT M01/M08 A3036 RMK A01 T10131082  RH  059%=      5-min Rain = 0
KCA1 091552Z 28004KT M01/M08 A3036 RMK A01 T10101080  RH  059%=      5-min Rain = 0
KCA1 091553Z 27005KT M01/M08 A3036 RMK A01 T10071079  RH  058%=      5-min Rain = 0
KCA1 091554Z 28006KT M01/M08 A3036 RMK A01 T10071080  RH  058%=      5-min Rain = 0
KCA1 091555Z 28005KT M01/M08 A3036 RMK A01 T10081082  RH  057%=      5-min Rain = 0
KCA1 091556Z 27005KT M01/M08 A3036 RMK A01 T10091081  RH  058%=      5-min Rain = 0
KCA1 091557Z 27006KT M01/M08 A3036 RMK A01 T10081080  RH  058%=      5-min Rain = 0
KCA1 091558Z 28005KT M01/M08 A3036 RMK A01 T10061079  RH  058%=      5-min Rain = 0
KCA1 091559Z 27004KT M01/M08 A3036 RMK A01 T10051079  RH  057%=      5-min Rain = 0
KCA1 091600Z 26005KT M00/M08 A3036 RMK A01 T10041079  RH  057%=      5-min Rain = 0
KCA1 091601Z 27005KT M00/M08 A3036 RMK A01 T10031078  RH  057%=      5-min Rain = 0
KCA1 091602Z 28005KT M00/M08 A3036 RMK A01 T10031079  RH  057%=      5-min Rain = 0
KCA1 091603Z 28005KT M00/M08 A3036 RMK A01 T10021079  RH  056%=      5-min Rain = 0
KCA1 091604Z 28006KT M00/M08 A3036 RMK A01 T10021078  RH  057%=      5-min Rain = 0
KCA1 091605Z 28005KT M00/M08 A3036 RMK A01 T10031079  RH  056%=      5-min Rain = 0
KCA1 091606Z 30006KT M00/M08 A3036 RMK A01 T10031079  RH  056%=      5-min Rain = 0
KCA1 091607Z 30005KT M00/M08 A3036 RMK A01 T10011077  RH  057%=      5-min Rain = 0
KCA1 091608Z 29004KT 00/M08 A3036 RMK A01 T00011077  RH  056%=      5-min Rain = 0
KCA1 091609Z 29005KT 00/M08 A3036 RMK A01 T00011077  RH  056%=      5-min Rain = 0
KCA1 091610Z 30006KT 00/M08 A3036 RMK A01 T00021077  RH  055%=      5-min Rain = 0
KCA1 091611Z 29005KT 00/M08 A3036 RMK A01 T00021078  RH  055%=      5-min Rain = 0
KCA1 091612Z 28004KT 00/M08 A3036 RMK A01 T00021078  RH  055%=      5-min Rain = 0
KCA1 091613Z 28005KT 00/M08 A3036 RMK A01 T00021078  RH  055%=      5-min Rain = 0
KCA1 091614Z 28004KT 00/M08 A3036 RMK A01 T00041076  RH  055%=      5-min Rain = 0
KCA1 091615Z 27006KT 01/M08 A3036 RMK A01 T00071075  RH  054%=      5-min Rain = 0
KCA1 091616Z 26005KT 01/M07 A3036 RMK A01 T00091074  RH  054%=      5-min Rain = 0
KCA1 091617Z 27007KT 01/M08 A3036 RMK A01 T00091076  RH  053%=      5-min Rain = 0
KCA1 091618Z 27004KT 01/M08 A3036 RMK A01 T00081077  RH  053%=      5-min Rain = 0
KCA1 091619Z 27006KT 01/M08 A3036 RMK A01 T00091076  RH  053%=      5-min Rain = 0
KCA1 091620Z 29005KT 01/M08 A3037 RMK A01 T00101075  RH  053%=      5-min Rain = 0
KCA1 091621Z 28006KT 01/M08 A3037 RMK A01 T00101077  RH  052%=      5-min Rain = 0
KCA1 091622Z 29004KT 01/M08 A3036 RMK A01 T00101076  RH  053%=      5-min Rain = 0
KCA1 091623Z 27004KT 01/M07 A3036 RMK A01 T00121074  RH  053%=      5-min Rain = 0
KCA1 091624Z 28004KT 01/M07 A3037 RMK A01 T00141071  RH  053%=      5-min Rain = 0
KCA1 091625Z 30006KT 01/M07 A3037 RMK A01 T00141073  RH  052%=      5-min Rain = 0
KCA1 091626Z 29006KT 01/M07 A3037 RMK A01 T00141074  RH  052%=      5-min Rain = 0
KCA1 091627Z 28005KT 01/M07 A3037 RMK A01 T00131074  RH  052%=      5-min Rain = 0
KCA1 091628Z 28006KT 01/M07 A3037 RMK A01 T00131073  RH  053%=      5-min Rain = 0
KCA1 091629Z 30007KT 02/M07 A3037 RMK A01 T00151071  RH  053%=      5-min Rain = 0
KCA1 091630Z 29007KT 02/M07 A3037 RMK A01 T00161072  RH  052%=      5-min Rain = 0
KCA1 091631Z 28006KT 02/M07 A3037 RMK A01 T00161072  RH  052%=      5-min Rain = 0
KCA1 091632Z 28007KT 02/M07 A3037 RMK A01 T00161071  RH  052%=      5-min Rain = 0
KCA1 091633Z 29007KT 02/M07 A3037 RMK A01 T00171072  RH  052%=      5-min Rain = 0
KCA1 091634Z 30006KT 02/M07 A3037 RMK A01 T00181071  RH  052%=      5-min Rain = 0
KCA1 091635Z 30007KT 02/M07 A3037 RMK A01 T00201069  RH  052%=      5-min Rain = 0
KCA1 091636Z 30007KT 02/M07 A3037 RMK A01 T00221071  RH  051%=      5-min Rain = 0
KCA1 091637Z 30008KT 02/M07 A3037 RMK A01 T00211071  RH  050%=      5-min Rain = 0
KCA1 091638Z 30006KT 02/M07 A3037 RMK A01 T00211071  RH  051%=      5-min Rain = 0
KCA1 091639Z 29006KT 02/M07 A3037 RMK A01 T00211071  RH  051%=      5-min Rain = 0
KCA1 091640Z 28005KT 02/M07 A3037 RMK A01 T00221070  RH  051%=      5-min Rain = 0
KCA1 091641Z 28007KT 03/M07 A3037 RMK A01 T00251067  RH  050%=      5-min Rain = 0
KCA1 091642Z 29007KT 03/M07 A3037 RMK A01 T00271069  RH  049%=      5-min Rain = 0
KCA1 091643Z 30005KT 03/M07 A3037 RMK A01 T00261070  RH  049%=      5-min Rain = 0
KCA1 091644Z 30007KT 03/M07 A3037 RMK A01 T00261070  RH  049%=      5-min Rain = 0
KCA1 091645Z 30007KT 03/M07 A3037 RMK A01 T00271069  RH  049%=      5-min Rain = 0
KCA1 091646Z 28006KT 03/M07 A3037 RMK A01 T00271069  RH  049%=      5-min Rain = 0
KCA1 091647Z 29005KT 03/M07 A3037 RMK A01 T00271069  RH  049%=      5-min Rain = 0
KCA1 091648Z 29006KT 03/M07 A3037 RMK A01 T00281068  RH  049%=      5-min Rain = 0
KCA1 091649Z 29008KT 03/M07 A3037 RMK A01 T00281068  RH  049%=      5-min Rain = 0
KCA1 091650Z 29008KT 03/M07 A3037 RMK A01 T00301067  RH  049%=      5-min Rain = 0
KCA1 091651Z 30006KT 03/M07 A3037 RMK A01 T00291068  RH  049%=      5-min Rain = 0
KCA1 091652Z 29007KT 03/M07 A3037 RMK A01 T00281069  RH  049%=      5-min Rain = 0
KCA1 091653Z 30006KT 03/M07 A3037 RMK A01 T00291068  RH  049%=      5-min Rain = 0
KCA1 091654Z 30009KT 03/M07 A3037 RMK A01 T00301066  RH  049%=      5-min Rain = 0
KCA1 091655Z 30008KT 03/M07 A3037 RMK A01 T00311066  RH  049%=      5-min Rain = 0
KCA1 091656Z 31008KT 03/M07 A3037 RMK A01 T00331066  RH  048%=      5-min Rain = 0
KCA1 091657Z 29006KT 03/M07 A3037 RMK A01 T00331065  RH  048%=      5-min Rain = 0
KCA1 091658Z 31006KT 04/M06 A3037 RMK A01 T00361063  RH  048%=      5-min Rain = 0
KCA1 091659Z 30006KT 04/M06 A3037 RMK A01 T00371064  RH  048%=      5-min Rain = 0
KCA1 091700Z 29008KT 04/M06 A3037 RMK A01 T00391063  RH  047%=      5-min Rain = 0
KCA1 091701Z 29007KT 04/M06 A3037 RMK A01 T00391064  RH  047%=      5-min Rain = 0
KCA1 091702Z 29006KT 04/M06 A3037 RMK A01 T00391064  RH  047%=      5-min Rain = 0
KCA1 091703Z 29007KT 04/M06 A3037 RMK A01 T00401063  RH  047%=      5-min Rain = 0
KCA1 091704Z 28006KT 04/M06 A3037 RMK A01 T00411063  RH  047%=      5-min Rain = 0
KCA1 091705Z 28005KT 04/M06 A3037 RMK A01 T00421062  RH  047%=      5-min Rain = 0
KCA1 091706Z 27005KT 04/M06 A3037 RMK A01 T00441061  RH  046%=      5-min Rain = 0
KCA1 091707Z 26005KT 04/M06 A3037 RMK A01 T00441062  RH  046%=      5-min Rain = 0
KCA1 091708Z 27006KT 05/M06 A3037 RMK A01 T00451061  RH  046%=      5-min Rain = 0
KCA1 091709Z 28006KT 05/M06 A3037 RMK A01 T00461062  RH  046%=      5-min Rain = 0
KCA1 091710Z 29007KT 05/M06 A3037 RMK A01 T00461062  RH  046%=      5-min Rain = 0
KCA1 091711Z 30005KT 05/M06 A3037 RMK A01 T00451063  RH  046%=      5-min Rain = 0
KCA1 091712Z 27005KT 04/M06 A3037 RMK A01 T00431063  RH  046%=      5-min Rain = 0
KCA1 091713Z 28006KT 04/M06 A3037 RMK A01 T00441062  RH  046%=      5-min Rain = 0
KCA1 091714Z 27006KT 05/M06 A3037 RMK A01 T00461060  RH  046%=      5-min Rain = 0
KCA1 091715Z 27004KT 05/M06 A3037 RMK A01 T00471061  RH  046%=      5-min Rain = 0
KCA1 091716Z 26005KT 05/M06 A3037 RMK A01 T00461061  RH  046%=      5-min Rain = 0
KCA1 091717Z 28005KT 05/M06 A3037 RMK A01 T00471059  RH  046%=      5-min Rain = 0
KCA1 091718Z 27005KT 05/M06 A3037 RMK A01 T00481059  RH  046%=      5-min Rain = 0
KCA1 091719Z 27005KT 05/M06 A3036 RMK A01 T00491060  RH  045%=      5-min Rain = 0
KCA1 091720Z 28005KT 05/M06 A3036 RMK A01 T00491059  RH  045%=      5-min Rain = 0
KCA1 091721Z 29006KT 05/M06 A3036 RMK A01 T00511058  RH  045%=      5-min Rain = 0
KCA1 091722Z 28005KT 05/M06 A3036 RMK A01 T00531058  RH  045%=      5-min Rain = 0
KCA1 091723Z 28005KT 05/M06 A3036 RMK A01 T00531059  RH  044%=      5-min Rain = 0
KCA1 091724Z 28004KT 05/M06 A3036 RMK A01 T00521060  RH  044%=      5-min Rain = 0
KCA1 091725Z 28005KT 05/M06 A3036 RMK A01 T00531058  RH  045%=      5-min Rain = 0
KCA1 091726Z 28005KT 05/M06 A3036 RMK A01 T00541058  RH  044%=      5-min Rain = 0
KCA1 091727Z 29007KT 05/M06 A3036 RMK A01 T00531058  RH  045%=      5-min Rain = 0
KCA1 091728Z 29003KT 05/M06 A3036 RMK A01 T00531058  RH  045%=      5-min Rain = 0
KCA1 091729Z 26001KT 05/M06 A3036 RMK A01 T00531058  RH  045%=      5-min Rain = 0
KCA1 091730Z 27005KT 05/M06 A3036 RMK A01 T00531057  RH  045%=      5-min Rain = 0
KCA1 091731Z 27005KT 06/M06 A3036 RMK A01 T00551056  RH  045%=      5-min Rain = 0
KCA1 091732Z 26004KT 06/M06 A3036 RMK A01 T00571055  RH  044%=      5-min Rain = 0
KCA1 091733Z 28005KT 06/M06 A3036 RMK A01 T00581056  RH  044%=      5-min Rain = 0
KCA1 091734Z 27004KT 06/M06 A3036 RMK A01 T00581055  RH  044%=      5-min Rain = 0
KCA1 091735Z 26004KT 06/M06 A3036 RMK A01 T00591056  RH  043%=      5-min Rain = 0
KCA1 091736Z 25004KT 06/M06 A3036 RMK A01 T00571057  RH  044%=      5-min Rain = 0
KCA1 091737Z 24002KT 06/M06 A3035 RMK A01 T00581056  RH  044%=      5-min Rain = 0
KCA1 091738Z 25003KT 06/M05 A3035 RMK A01 T00601054  RH  044%=      5-min Rain = 0
KCA1 091739Z 26002KT 06/M06 A3035 RMK A01 T00611056  RH  043%=      5-min Rain = 0
KCA1 091740Z 26002KT 06/M05 A3035 RMK A01 T00621054  RH  043%=      5-min Rain = 0
KCA1 091741Z 26004KT 07/M05 A3035 RMK A01 T00651052  RH  043%=      5-min Rain = 0
KCA1 091742Z 30004KT 07/M05 A3035 RMK A01 T00661053  RH  042%=      5-min Rain = 0
KCA1 091743Z 32003KT 07/M06 A3035 RMK A01 T00651056  RH  042%=      5-min Rain = 0
KCA1 091744Z 00003KT 06/M06 A3035 RMK A01 T00621057  RH  042%=      5-min Rain = 0
KCA1 091745Z 32003KT 06/M06 A3035 RMK A01 T00611057  RH  043%=      5-min Rain = 0
KCA1 091746Z 30002KT 06/M06 A3035 RMK A01 T00611057  RH  043%=      5-min Rain = 0
KCA1 091747Z 28004KT 06/M06 A3035 RMK A01 T00611055  RH  043%=      5-min Rain = 0
KCA1 091748Z 25003KT 06/M06 A3035 RMK A01 T00621055  RH  043%=      5-min Rain = 0
KCA1 091749Z 25003KT 06/M06 A3035 RMK A01 T00621055  RH  043%=      5-min Rain = 0
KCA1 091750Z 31005KT 06/M05 A3035 RMK A01 T00631054  RH  043%=      5-min Rain = 0
KCA1 091751Z 30005KT 07/M05 A3035 RMK A01 T00651054  RH  042%=      5-min Rain = 0
KCA1 091752Z 29005KT 07/M06 A3035 RMK A01 T00651055  RH  042%=      5-min Rain = 0
KCA1 091753Z 30005KT 07/M06 A3035 RMK A01 T00651055  RH  042%=      5-min Rain = 0
KCA1 091754Z 30004KT 07/M06 A3035 RMK A01 T00651055  RH  042%=      5-min Rain = 0
KCA1 091755Z 32003KT 06/M06 A3035 RMK A01 T00641055  RH  042%=      5-min Rain = 0
KCA1 091756Z 33002KT 06/M06 A3034 RMK A01 T00641056  RH  042%=      5-min Rain = 0
KCA1 091757Z 28001KT 06/M06 A3034 RMK A01 T00641056  RH  042%=      5-min Rain = 0
KCA1 091758Z 31002KT 07/M05 A3034 RMK A01 T00651054  RH  042%=      5-min Rain = 0
KCA1 091759Z 29006KT 07/M05 A3034 RMK A01 T00681052  RH  042%=      5-min Rain = 0
KCA1 091800Z 30007KT 07/M05 A3034 RMK A01 T00721051  RH  041%=      5-min Rain = 0
KCA1 091801Z 29006KT 07/M05 A3034 RMK A01 T00721052  RH  041%=      5-min Rain = 0
KCA1 091802Z 29006KT 07/M05 A3034 RMK A01 T00741052  RH  040%=      5-min Rain = 0
KCA1 091803Z 30003KT 07/M05 A3034 RMK A01 T00731054  RH  040%=      5-min Rain = 0
KCA1 091804Z 29003KT 07/M05 A3033 RMK A01 T00721054  RH  040%=      5-min Rain = 0
KCA1 091805Z 28002KT 07/M05 A3033 RMK A01 T00731053  RH  041%=      5-min Rain = 0
KCA1 091806Z 31002KT 07/M05 A3033 RMK A01 T00741052  RH  040%=      5-min Rain = 0
KCA1 091807Z 31002KT 08/M05 A3033 RMK A01 T00751052  RH  040%=      5-min Rain = 0
KCA1 091808Z 27004KT 08/M05 A3033 RMK A01 T00761052  RH  040%=      5-min Rain = 0
KCA1 091809Z 31006KT 08/M05 A3033 RMK A01 T00781051  RH  039%=      5-min Rain = 0
KCA1 091810Z 29004KT 08/M05 A3033 RMK A01 T00781054  RH  039%=      5-min Rain = 0
KCA1 091811Z 29003KT 08/M05 A3033 RMK A01 T00771054  RH  039%=      5-min Rain = 0
KCA1 091812Z 28003KT 08/M06 A3033 RMK A01 T00751056  RH  039%=      5-min Rain = 0
KCA1 091813Z 28005KT 08/M05 A3033 RMK A01 T00751054  RH  039%=      5-min Rain = 0
KCA1 091814Z 29005KT 08/M05 A3033 RMK A01 T00781053  RH  039%=      5-min Rain = 0
KCA1 091815Z 30003KT 08/M05 A3033 RMK A01 T00781054  RH  039%=      5-min Rain = 0
KCA1 091816Z 29005KT 08/M05 A3033 RMK A01 T00781053  RH  039%=      5-min Rain = 0
KCA1 091817Z 30004KT 08/M05 A3033 RMK A01 T00791054  RH  039%=      5-min Rain = 0
KCA1 091818Z 32006KT 08/M05 A3033 RMK A01 T00791053  RH  039%=      5-min Rain = 0
KCA1 091819Z 31004KT 08/M05 A3033 RMK A01 T00801053  RH  038%=      5-min Rain = 0
KCA1 091820Z 29008KT 08/M05 A3033 RMK A01 T00801053  RH  038%=      5-min Rain = 0
KCA1 091821Z 28007KT 08/M05 A3032 RMK A01 T00821052  RH  038%=      5-min Rain = 0
KCA1 091822Z 28006KT 08/M05 A3032 RMK A01 T00831052  RH  038%=      5-min Rain = 0
KCA1 091823Z 29005KT 08/M05 A3032 RMK A01 T00831053  RH  038%=      5-min Rain = 0
KCA1 091824Z 30006KT 08/M05 A3032 RMK A01 T00841051  RH  038%=      5-min Rain = 0
KCA1 091825Z 32004KT 08/M05 A3032 RMK A01 T00841053  RH  037%=      5-min Rain = 0
KCA1 091826Z 34003KT 08/M05 A3032 RMK A01 T00831054  RH  037%=      5-min Rain = 0
KCA1 091827Z 30005KT 08/M05 A3032 RMK A01 T00831054  RH  037%=      5-min Rain = 0
KCA1 091828Z 30004KT 08/M05 A3032 RMK A01 T00841054  RH  037%=      5-min Rain = 0
KCA1 091829Z 28004KT 09/M05 A3032 RMK A01 T00851053  RH  037%=      5-min Rain = 0
KCA1 091830Z 29006KT 09/M05 A3032 RMK A01 T00851054  RH  037%=      5-min Rain = 0
KCA1 091831Z 31006KT 09/M05 A3032 RMK A01 T00851054  RH  037%=      5-min Rain = 0
KCA1 091832Z 33004KT 09/M05 A3032 RMK A01 T00851054  RH  037%=      5-min Rain = 0
KCA1 091833Z 33003KT 08/M05 A3032 RMK A01 T00841054  RH  037%=      5-min Rain = 0
KCA1 091834Z 33002KT 08/M05 A3032 RMK A01 T00841054  RH  037%=      5-min Rain = 0
KCA1 091835Z 19002KT 08/M05 A3032 RMK A01 T00841053  RH  037%=      5-min Rain = 0
KCA1 091836Z 18002KT 09/M05 A3032 RMK A01 T00861053  RH  037%=      5-min Rain = 0
KCA1 091837Z 27003KT 09/M05 A3032 RMK A01 T00881052  RH  037%=      5-min Rain = 0
KCA1 091838Z 27004KT 09/M05 A3031 RMK A01 T00891052  RH  036%=      5-min Rain = 0
KCA1 091839Z 26003KT 09/M05 A3031 RMK A01 T00901052  RH  036%=      5-min Rain = 0
KCA1 091840Z 28005KT 09/M05 A3031 RMK A01 T00901052  RH  036%=      5-min Rain = 0
KCA1 091841Z 33005KT 09/M05 A3031 RMK A01 T00911052  RH  036%=      5-min Rain = 0
KCA1 091842Z 31002KT 09/M05 A3031 RMK A01 T00911054  RH  036%=      5-min Rain = 0
KCA1 091843Z 28003KT 09/M05 A3031 RMK A01 T00901054  RH  036%=      5-min Rain = 0
KCA1 091844Z 27004KT 09/M05 A3031 RMK A01 T00911051  RH  036%=      5-min Rain = 0
KCA1 091845Z 29006KT 09/M05 A3031 RMK A01 T00941051  RH  035%=      5-min Rain = 0
KCA1 091846Z 31006KT 09/M05 A3031 RMK A01 T00941053  RH  035%=      5-min Rain = 0
KCA1 091847Z 31005KT 09/M05 A3031 RMK A01 T00921054  RH  035%=      5-min Rain = 0
KCA1 091848Z 34007KT 09/M05 A3031 RMK A01 T00931053  RH  035%=      5-min Rain = 0
KCA1 091849Z 34007KT 09/M05 A3031 RMK A01 T00941051  RH  035%=      5-min Rain = 0
KCA1 091850Z 36006KT 09/M05 A3031 RMK A01 T00941053  RH  035%=      5-min Rain = 0
KCA1 091851Z 35003KT 09/M06 A3031 RMK A01 T00911055  RH  035%=      5-min Rain = 0
KCA1 091852Z 32004KT 09/M06 A3031 RMK A01 T00901055  RH  035%=      5-min Rain = 0
KCA1 091853Z 31005KT 09/M05 A3031 RMK A01 T00921052  RH  036%=      5-min Rain = 0
KCA1 091854Z 31006KT 09/M05 A3031 RMK A01 T00941052  RH  035%=      5-min Rain = 0
KCA1 091855Z 30005KT 09/M05 A3031 RMK A01 T00941054  RH  035%=      5-min Rain = 0
KCA1 091856Z 30005KT 09/M06 A3031 RMK A01 T00931055  RH  035%=      5-min Rain = 0
KCA1 091857Z 30004KT 09/M06 A3031 RMK A01 T00921055  RH  035%=      5-min Rain = 0
KCA1 091858Z 30005KT 09/M06 A3031 RMK A01 T00911056  RH  035%=      5-min Rain = 0
KCA1 091859Z 33003KT 09/M06 A3031 RMK A01 T00901056  RH  035%=      5-min Rain = 0
KCA1 091900Z 27002KT 09/M06 A303 RMK A01 T00891057  RH  035%=      5-min Rain = 0
KCA1 091901Z 26002KT 09/M06 A303 RMK A01 T00891056  RH  035%=      5-min Rain = 0
KCA1 091902Z 29003KT 09/M05 A303 RMK A01 T00921053  RH  035%=      5-min Rain = 0
KCA1 091903Z 29003KT 10/M05 A303 RMK A01 T00951052  RH  035%=      5-min Rain = 0
KCA1 091904Z 29003KT 10/M05 A303 RMK A01 T00971053  RH  034%=      5-min Rain = 0
KCA1 091905Z 26002KT 10/M05 A303 RMK A01 T00961053  RH  034%=      5-min Rain = 0
KCA1 091906Z 28004KT 10/M05 A303 RMK A01 T00951053  RH  035%=      5-min Rain = 0
KCA1 091907Z 30005KT 10/M05 A303 RMK A01 T00981052  RH  034%=      5-min Rain = 0
KCA1 091908Z 33006KT 10/M06 A303 RMK A01 T00991055  RH  033%=      5-min Rain = 0
KCA1 091909Z 35005KT 10/M05 A303 RMK A01 T00991054  RH  034%=      5-min Rain = 0
KCA1 091910Z 35004KT 10/M05 A303 RMK A01 T00971054  RH  034%=      5-min Rain = 0
KCA1 091911Z 34004KT 10/M05 A303 RMK A01 T00981052  RH  034%=      5-min Rain = 0
KCA1 091912Z 34007KT 10/M05 A303 RMK A01 T00991052  RH  034%=      5-min Rain = 0
KCA1 091913Z 00004KT 10/M05 A303 RMK A01 T00981054  RH  034%=      5-min Rain = 0
KCA1 091914Z 05002KT 10/M06 A303 RMK A01 T00961055  RH  034%=      5-min Rain = 0
KCA1 091915Z 34002KT 10/M05 A303 RMK A01 T00951054  RH  035%=      5-min Rain = 0
KCA1 091916Z 30003KT 09/M05 A303 RMK A01 T00941054  RH  035%=      5-min Rain = 0
KCA1 091917Z 33002KT 09/M05 A303 RMK A01 T00941054  RH  035%=      5-min Rain = 0
KCA1 091918Z 35003KT 10/M05 A303 RMK A01 T00951054  RH  035%=      5-min Rain = 0
KCA1 091919Z 01002KT 10/M05 A303 RMK A01 T00961054  RH  034%=      5-min Rain = 0
KCA1 091920Z 36001KT 10/M06 A303 RMK A01 T00961055  RH  034%=      5-min Rain = 0
KCA1 091921Z 04002KT 10/M05 A303 RMK A01 T00961054  RH  034%=      5-min Rain = 0
KCA1 091922Z 08002KT 10/M05 A303 RMK A01 T00961054  RH  034%=      5-min Rain = 0
KCA1 091923Z 08001KT 10/M06 A303 RMK A01 T00951055  RH  034%=      5-min Rain = 0
KCA1 091924Z 12000KT 10/M06 A303 RMK A01 T00951055  RH  034%=      5-min Rain = 0
KCA1 091925Z 16001KT 10/M05 A303 RMK A01 T00961054  RH  034%=      5-min Rain = 0
KCA1 091926Z 28002KT 10/M05 A303 RMK A01 T01001052  RH  034%=      5-min Rain = 0
KCA1 091927Z 30003KT 10/M05 A303 RMK A01 T01031052  RH  033%=      5-min Rain = 0
KCA1 091928Z 26004KT 10/M05 A303 RMK A01 T01031054  RH  033%=      5-min Rain = 0
KCA1 091929Z 27004KT 10/M05 A3029 RMK A01 T01031054  RH  033%=      5-min Rain = 0
KCA1 091930Z 24002KT 10/M05 A303 RMK A01 T01041054  RH  032%=      5-min Rain = 0
KCA1 091931Z 27004G9KT 11/M05 A3029 RMK A01 T01051054  RH  032%=      5-min Rain = 0
KCA1 091932Z 27005KT 11/M06 A3029 RMK A01 T01061056  RH  032%=      5-min Rain = 0
KCA1 091933Z 24001KT 11/M06 A3029 RMK A01 T01051058  RH  031%=      5-min Rain = 0
KCA1 091934Z 30003KT 10/M06 A3029 RMK A01 T01031059  RH  031%=      5-min Rain = 0
KCA1 091935Z 31006KT 10/M06 A3029 RMK A01 T01031060  RH  031%=      5-min Rain = 0
KCA1 091936Z 30006KT 10/M06 A3029 RMK A01 T01011060  RH  032%=      5-min Rain = 0
KCA1 091937Z 31006KT 10/M06 A3029 RMK A01 T01011058  RH  032%=      5-min Rain = 0
KCA1 091938Z 33003KT 10/M06 A3029 RMK A01 T01011058  RH  032%=      5-min Rain = 0
KCA1 091939Z 34002KT 10/M06 A3029 RMK A01 T01021057  RH  032%=      5-min Rain = 0
KCA1 091940Z 01002KT 10/M06 A3029 RMK A01 T01021058  RH  032%=      5-min Rain = 0
KCA1 091941Z 04001KT 10/M06 A3029 RMK A01 T01011058  RH  032%=      5-min Rain = 0
KCA1 091942Z 29003KT 10/M06 A3029 RMK A01 T01011056  RH  033%=      5-min Rain = 0
KCA1 091943Z 29004KT 10/M06 A3029 RMK A01 T01021055  RH  033%=      5-min Rain = 0
KCA1 091944Z 28005KT 10/M05 A3029 RMK A01 T01031053  RH  033%=      5-min Rain = 0
KCA1 091945Z 26006KT 10/M05 A3029 RMK A01 T01041052  RH  033%=      5-min Rain = 0
KCA1 091946Z 25007KT 11/M05 A3029 RMK A01 T01071050  RH  033%=      5-min Rain = 0
KCA1 091947Z 27005KT 11/M05 A3029 RMK A01 T01071051  RH  032%=      5-min Rain = 0
KCA1 091948Z 26004KT 11/M05 A3029 RMK A01 T01081051  RH  032%=      5-min Rain = 0
KCA1 091949Z 29002KT 11/M05 A3029 RMK A01 T01101050  RH  032%=      5-min Rain = 0
KCA1 091950Z 33003KT 11/M05 A3029 RMK A01 T01101051  RH  032%=      5-min Rain = 0
KCA1 091951Z 29002KT 11/M05 A3029 RMK A01 T01101052  RH  032%=      5-min Rain = 0
KCA1 091952Z 28003KT 11/M05 A3029 RMK A01 T01101052  RH  032%=      5-min Rain = 0
KCA1 091953Z 25005KT 11/M05 A3029 RMK A01 T01091052  RH  032%=      5-min Rain = 0
KCA1 091954Z 25004KT 11/M05 A3029 RMK A01 T01111052  RH  032%=      5-min Rain = 0
KCA1 091955Z 21002KT 11/M05 A3029 RMK A01 T01111053  RH  031%=      5-min Rain = 0
KCA1 091956Z 22002KT 11/M05 A3029 RMK A01 T01101053  RH  031%=      5-min Rain = 0
KCA1 091957Z 21002KT 11/M05 A3029 RMK A01 T01121052  RH  031%=      5-min Rain = 0
KCA1 091958Z 29005G11KT 11/M05 A3029 RMK A01 T01131054  RH  030%=      5-min Rain = 0
KCA1 091959Z 35005G11KT 11/M06 A3029 RMK A01 T01141055  RH  030%=      5-min Rain = 0
KCA1 092000Z 02003KT 11/M06 A3029 RMK A01 T01131055  RH  031%=      5-min Rain = 0
KCA1 092001Z 35003KT 11/M06 A3029 RMK A01 T01121055  RH  031%=      5-min Rain = 0
KCA1 092002Z 34004KT 11/M06 A3029 RMK A01 T01121059  RH  030%=      5-min Rain = 0
KCA1 092003Z 34003KT 11/M06 A3029 RMK A01 T01121062  RH  029%=      5-min Rain = 0
KCA1 092004Z 32004KT 11/M06 A3029 RMK A01 T01111060  RH  030%=      5-min Rain = 0
KCA1 092005Z 34005KT 11/M06 A3029 RMK A01 T01101061  RH  030%=      5-min Rain = 0
KCA1 092006Z 30005KT 11/M06 A3029 RMK A01 T01101058  RH  030%=      5-min Rain = 0
KCA1 092007Z 30005KT 11/M06 A3029 RMK A01 T01111055  RH  031%=      5-min Rain = 0
KCA1 092008Z 28004KT 11/M05 A3029 RMK A01 T01131054  RH  031%=      5-min Rain = 0
KCA1 092009Z 27005KT 11/M05 A3029 RMK A01 T01131054  RH  030%=      5-min Rain = 0
KCA1 092010Z 28005KT 11/M05 A3029 RMK A01 T01131054  RH  030%=      5-min Rain = 0
KCA1 092011Z 29002KT 11/M06 A3029 RMK A01 T01121055  RH  031%=      5-min Rain = 0
KCA1 092012Z 35003KT 11/M06 A3029 RMK A01 T01101055  RH  031%=      5-min Rain = 0
KCA1 092013Z 01002KT 11/M06 A3029 RMK A01 T01091055  RH  031%=      5-min Rain = 0
KCA1 092014Z 32002KT 11/M06 A3029 RMK A01 T01081056  RH  031%=      5-min Rain = 0
KCA1 092015Z 31006KT 11/M06 A3029 RMK A01 T01081057  RH  031%=      5-min Rain = 0
KCA1 092016Z 32007KT 11/M07 A3029 RMK A01 T01091065  RH  029%=      5-min Rain = 0
KCA1 092017Z 33006KT 11/M07 A3029 RMK A01 T01101066  RH  028%=      5-min Rain = 0
KCA1 092018Z 33004KT 11/M07 A3029 RMK A01 T01111068  RH  028%=      5-min Rain = 0
KCA1 092019Z 06001KT 11/M07 A3029 RMK A01 T01111068  RH  028%=      5-min Rain = 0
KCA1 092020Z 32002KT 11/M07 A3029 RMK A01 T01111067  RH  028%=      5-min Rain = 0
KCA1 092021Z 29004KT 11/M07 A3029 RMK A01 T01121066  RH  028%=      5-min Rain = 0
KCA1 092022Z 30005KT 11/M07 A3029 RMK A01 T01131066  RH  028%=      5-min Rain = 0
KCA1 092023Z 31008KT 11/M07 A3029 RMK A01 T01141068  RH  027%=      5-min Rain = 0
KCA1 092024Z 33010KT 11/M07 A3029 RMK A01 T01141068  RH  027%=      5-min Rain = 0
KCA1 092025Z 33009KT 11/M07 A3029 RMK A01 T01121068  RH  028%=      5-min Rain = 0
KCA1 092026Z 34007KT 11/M07 A3029 RMK A01 T01111069  RH  028%=      5-min Rain = 0
KCA1 092027Z 35004KT 11/M07 A3029 RMK A01 T01101070  RH  028%=      5-min Rain = 0
KCA1 092028Z 01005KT 11/M07 A3029 RMK A01 T01101072  RH  027%=      5-min Rain = 0
KCA1 092029Z 01004KT 11/M07 A3029 RMK A01 T01111072  RH  027%=      5-min Rain = 0
KCA1 092030Z 35003KT 11/M07 A3029 RMK A01 T01121071  RH  027%=      5-min Rain = 0
KCA1 092031Z 34002KT 11/M07 A3029 RMK A01 T01131070  RH  027%=      5-min Rain = 0
KCA1 092032Z 33008KT 12/M07 A3029 RMK A01 T01151072  RH  026%=      5-min Rain = 0
KCA1 092033Z 34009KT 12/M08 A3029 RMK A01 T01151077  RH  025%=      5-min Rain = 0
KCA1 092034Z 34007KT 12/M08 A3029 RMK A01 T01151078  RH  025%=      5-min Rain = 0
KCA1 092035Z 33006KT 11/M08 A3029 RMK A01 T01141078  RH  025%=      5-min Rain = 0
KCA1 092036Z 34006KT 11/M08 A3029 RMK A01 T01131079  RH  025%=      5-min Rain = 0
KCA1 092037Z 35004KT 11/M08 A3029 RMK A01 T01121081  RH  025%=      5-min Rain = 0
KCA1 092038Z 35006KT 11/M08 A3029 RMK A01 T01121080  RH  025%=      5-min Rain = 0
KCA1 092039Z 33008KT 11/M08 A3029 RMK A01 T01121079  RH  025%=      5-min Rain = 0
KCA1 092040Z 34007KT 11/M08 A3029 RMK A01 T01121079  RH  025%=      5-min Rain = 0
KCA1 092041Z 34005KT 11/M08 A3029 RMK A01 T01121078  RH  026%=      5-min Rain = 0
KCA1 092042Z 34004KT 11/M08 A3029 RMK A01 T01111077  RH  026%=      5-min Rain = 0
KCA1 092043Z 00004KT 11/M08 A3029 RMK A01 T01111076  RH  026%=      5-min Rain = 0
KCA1 092044Z 36006KT 11/M07 A3029 RMK A01 T01121074  RH  026%=      5-min Rain = 0
KCA1 092045Z 35005KT 11/M07 A3029 RMK A01 T01141073  RH  026%=      5-min Rain = 0
KCA1 092046Z 01008KT 12/M08 A3029 RMK A01 T01161077  RH  025%=      5-min Rain = 0
KCA1 092047Z 36004KT 12/M08 A3029 RMK A01 T01171078  RH  025%=      5-min Rain = 0
KCA1 092048Z 34007KT 12/M08 A3029 RMK A01 T01171076  RH  025%=      5-min Rain = 0
KCA1 092049Z 35007KT 12/M08 A3029 RMK A01 T01171080  RH  024%=      5-min Rain = 0
KCA1 092050Z 35011KT 12/M08 A3029 RMK A01 T01161082  RH  024%=      5-min Rain = 0
KCA1 092051Z 35010KT 12/M08 A3029 RMK A01 T01151084  RH  024%=      5-min Rain = 0
KCA1 092052Z 34008KT 11/M08 A3029 RMK A01 T01141083  RH  024%=      5-min Rain = 0
KCA1 092053Z 34008KT 11/M08 A3029 RMK A01 T01141083  RH  024%=      5-min Rain = 0
KCA1 092054Z 34007KT 11/M09 A3029 RMK A01 T01131085  RH  024%=      5-min Rain = 0
KCA1 092055Z 34006KT 11/M09 A3029 RMK A01 T01121085  RH  024%=      5-min Rain = 0
KCA1 092056Z 35005KT 11/M08 A3029 RMK A01 T01121084  RH  025%=      5-min Rain = 0
KCA1 092057Z 35004KT 11/M08 A3029 RMK A01 T01121080  RH  025%=      5-min Rain = 0
KCA1 092058Z 33005KT 11/M08 A3029 RMK A01 T01131077  RH  026%=      5-min Rain = 0
KCA1 092059Z 36007KT 11/M08 A3029 RMK A01 T01141075  RH  026%=      5-min Rain = 0
KCA1 092100Z 35007KT 11/M07 A3029 RMK A01 T01141074  RH  026%=      5-min Rain = 0
KCA1 092101Z 00011KT 11/M08 A3029 RMK A01 T01131075  RH  026%=      5-min Rain = 0
KCA1 092102Z 35007KT 11/M08 A3029 RMK A01 T01101077  RH  026%=      5-min Rain = 0
KCA1 092103Z 34008KT 11/M08 A3029 RMK A01 T01101076  RH  026%=      5-min Rain = 0
KCA1 092104Z 34008KT 11/M08 A3029 RMK A01 T01111075  RH  026%=      5-min Rain = 0
KCA1 092105Z 34008KT 11/M08 A3029 RMK A01 T01121075  RH  026%=      5-min Rain = 0
KCA1 092106Z 35008KT 11/M08 A3029 RMK A01 T01121075  RH  026%=      5-min Rain = 0
KCA1 092107Z 36009KT 11/M07 A3029 RMK A01 T01121074  RH  026%=      5-min Rain = 0
KCA1 092108Z 01008KT 11/M07 A3029 RMK A01 T01131074  RH  026%=      5-min Rain = 0
KCA1 092109Z 01009KT 11/M07 A3029 RMK A01 T01131074  RH  026%=      5-min Rain = 0
KCA1 092110Z 01011KT 11/M07 A3029 RMK A01 T01131072  RH  027%=      5-min Rain = 0
KCA1 092111Z 35008KT 11/M07 A3029 RMK A01 T01131072  RH  027%=      5-min Rain = 0
KCA1 092112Z 36009KT 11/M07 A3029 RMK A01 T01141071  RH  027%=      5-min Rain = 0
KCA1 092113Z 35010KT 12/M07 A3029 RMK A01 T01151071  RH  027%=      5-min Rain = 0
KCA1 092114Z 35007KT 11/M07 A3029 RMK A01 T01141073  RH  026%=      5-min Rain = 0
KCA1 092115Z 35008KT 11/M07 A3029 RMK A01 T01121073  RH  027%=      5-min Rain = 0
KCA1 092116Z 35006KT 11/M07 A3029 RMK A01 T01131071  RH  027%=      5-min Rain = 0
KCA1 092117Z 34008KT 12/M07 A3029 RMK A01 T01151070  RH  027%=      5-min Rain = 0
KCA1 092118Z 35007KT 12/M07 A3029 RMK A01 T01151073  RH  026%=      5-min Rain = 0
KCA1 092119Z 34007KT 11/M07 A3029 RMK A01 T01141072  RH  026%=      5-min Rain = 0
KCA1 092120Z 34007KT 11/M07 A3029 RMK A01 T01131073  RH  026%=      5-min Rain = 0
KCA1 092121Z 34009KT 11/M07 A3029 RMK A01 T01121073  RH  027%=      5-min Rain = 0
KCA1 092122Z 35009KT 11/M07 A3029 RMK A01 T01111072  RH  027%=      5-min Rain = 0
KCA1 092123Z 35007KT 11/M07 A3029 RMK A01 T01101073  RH  027%=      5-min Rain = 0
KCA1 092124Z 35007KT 11/M07 A3028 RMK A01 T01081074  RH  027%=      5-min Rain = 0
KCA1 092125Z 36010KT 11/M07 A3029 RMK A01 T01081073  RH  027%=      5-min Rain = 0
KCA1 092126Z 00011KT 11/M07 A3029 RMK A01 T01081074  RH  027%=      5-min Rain = 0
KCA1 092127Z 36010KT 11/M08 A3029 RMK A01 T01071075  RH  027%=      5-min Rain = 0
KCA1 092128Z 35009KT 11/M08 A3028 RMK A01 T01061076  RH  027%=      5-min Rain = 0
KCA1 092129Z 35008KT 11/M07 A3028 RMK A01 T01071074  RH  027%=      5-min Rain = 0
KCA1 092130Z 35007KT 11/M08 A3028 RMK A01 T01071075  RH  027%=      5-min Rain = 0
KCA1 092131Z 02008KT 11/M08 A3028 RMK A01 T01081075  RH  027%=      5-min Rain = 0
KCA1 092132Z 01008KT 11/M08 A3028 RMK A01 T01081075  RH  027%=      5-min Rain = 0
KCA1 092133Z 01008KT 11/M08 A3028 RMK A01 T01071076  RH  027%=      5-min Rain = 0
KCA1 092134Z 01006KT 11/M08 A3028 RMK A01 T01071076  RH  027%=      5-min Rain = 0
KCA1 092135Z 02006KT 11/M08 A3029 RMK A01 T01061076  RH  027%=      5-min Rain = 0
KCA1 092136Z 02005KT 11/M08 A3029 RMK A01 T01061075  RH  027%=      5-min Rain = 0
KCA1 092137Z 03005KT 11/M08 A3029 RMK A01 T01061075  RH  027%=      5-min Rain = 0
KCA1 092138Z 03004KT 11/M08 A3029 RMK A01 T01061075  RH  027%=      5-min Rain = 0
KCA1 092139Z 02005KT 11/M07 A3028 RMK A01 T01071074  RH  027%=      5-min Rain = 0
KCA1 092140Z 01005KT 11/M07 A3029 RMK A01 T01081074  RH  027%=      5-min Rain = 0
KCA1 092141Z 03009KT 11/M07 A3029 RMK A01 T01101071  RH  027%=      5-min Rain = 0
KCA1 092142Z 03010KT 11/M07 A3029 RMK A01 T01101071  RH  027%=      5-min Rain = 0
KCA1 092143Z 02009KT 11/M07 A3029 RMK A01 T01081071  RH  028%=      5-min Rain = 0
KCA1 092144Z 03007KT 11/M07 A3029 RMK A01 T01081071  RH  028%=      5-min Rain = 0
KCA1 092145Z 02007KT 11/M07 A3029 RMK A01 T01071070  RH  028%=      5-min Rain = 0
KCA1 092146Z 01007KT 11/M07 A3029 RMK A01 T01071071  RH  028%=      5-min Rain = 0
KCA1 092147Z 01007KT 11/M07 A3029 RMK A01 T01081071  RH  028%=      5-min Rain = 0
KCA1 092148Z 01007KT 11/M07 A3029 RMK A01 T01071072  RH  028%=      5-min Rain = 0
KCA1 092149Z 02006KT 11/M07 A3029 RMK A01 T01071072  RH  028%=      5-min Rain = 0
KCA1 092150Z 01006KT 11/M07 A3029 RMK A01 T01071072  RH  028%=      5-min Rain = 0
KCA1 092151Z 02004KT 11/M07 A3029 RMK A01 T01071073  RH  028%=      5-min Rain = 0
KCA1 092152Z 04005KT 11/M07 A3029 RMK A01 T01061073  RH  028%=      5-min Rain = 0
KCA1 092153Z 01004KT 11/M07 A3029 RMK A01 T01061073  RH  028%=      5-min Rain = 0
KCA1 092154Z 00005KT 11/M07 A3028 RMK A01 T01061073  RH  028%=      5-min Rain = 0
KCA1 092155Z 01003KT 11/M07 A3028 RMK A01 T01061074  RH  027%=      5-min Rain = 0
KCA1 092156Z 02004KT 11/M07 A3028 RMK A01 T01061074  RH  027%=      5-min Rain = 0
KCA1 092157Z 02003KT 11/M08 A3028 RMK A01 T01061076  RH  027%=      5-min Rain = 0
KCA1 092158Z 33003KT 11/M08 A3028 RMK A01 T01071075  RH  027%=      5-min Rain = 0
KCA1 092159Z 32003KT 11/M08 A3028 RMK A01 T01061075  RH  027%=      5-min Rain = 0
KCA1 092200Z 32003KT 11/M07 A3029 RMK A01 T01071074  RH  027%=      5-min Rain = 0
KCA1 092201Z 35004KT 11/M07 A3029 RMK A01 T01071074  RH  027%=      5-min Rain = 0
KCA1 092202Z 34005KT 11/M07 A3029 RMK A01 T01071074  RH  027%=      5-min Rain = 0
KCA1 092203Z 36007KT 11/M07 A3029 RMK A01 T01081074  RH  027%=      5-min Rain = 0
KCA1 092204Z 36007KT 11/M07 A3029 RMK A01 T01081074  RH  027%=      5-min Rain = 0
KCA1 092205Z 00007KT 11/M08 A3029 RMK A01 T01061077  RH  027%=      5-min Rain = 0
KCA1 092206Z 00006KT 11/M08 A3029 RMK A01 T01051076  RH  027%=      5-min Rain = 0
KCA1 092207Z 02004KT 10/M07 A3029 RMK A01 T01041074  RH  028%=      5-min Rain = 0
KCA1 092208Z 00004KT 11/M07 A3029 RMK A01 T01051073  RH  028%=      5-min Rain = 0
KCA1 092209Z 01005KT 11/M07 A3029 RMK A01 T01051074  RH  028%=      5-min Rain = 0
KCA1 092210Z 01006KT 11/M07 A3029 RMK A01 T01051074  RH  028%=      5-min Rain = 0
KCA1 092211Z 00007KT 11/M07 A3029 RMK A01 T01061074  RH  028%=      5-min Rain = 0
KCA1 092212Z 01008KT 11/M07 A3029 RMK A01 T01061074  RH  027%=      5-min Rain = 0
KCA1 092213Z 01007KT 11/M07 A3029 RMK A01 T01061074  RH  028%=      5-min Rain = 0
KCA1 092214Z 01006KT 11/M07 A3029 RMK A01 T01051073  RH  028%=      5-min Rain = 0
KCA1 092215Z 02005KT 11/M07 A3029 RMK A01 T01051073  RH  028%=      5-min Rain = 0
KCA1 092216Z 01005KT 11/M07 A3029 RMK A01 T01051073  RH  028%=      5-min Rain = 0
KCA1 092217Z 01005KT 11/M07 A3029 RMK A01 T01051073  RH  028%=      5-min Rain = 0
KCA1 092218Z 02005KT 11/M07 A3029 RMK A01 T01051072  RH  028%=      5-min Rain = 0
KCA1 092219Z 02004KT 10/M07 A3029 RMK A01 T01041072  RH  028%=      5-min Rain = 0
KCA1 092220Z 02004KT 10/M07 A3029 RMK A01 T01041072  RH  028%=      5-min Rain = 0
KCA1 092221Z 35006KT 11/M07 A3029 RMK A01 T01051071  RH  028%=      5-min Rain = 0
KCA1 092222Z 34005KT 11/M07 A3029 RMK A01 T01051071  RH  028%=      5-min Rain = 0
KCA1 092223Z 34005KT 11/M07 A3029 RMK A01 T01051070  RH  028%=      5-min Rain = 0
KCA1 092224Z 34006KT 11/M07 A3029 RMK A01 T01051070  RH  028%=      5-min Rain = 0
KCA1 092225Z 32005KT 11/M07 A3029 RMK A01 T01061070  RH  029%=      5-min Rain = 0
KCA1 092226Z 32004KT 11/M07 A3029 RMK A01 T01051070  RH  029%=      5-min Rain = 0
KCA1 092227Z 33004KT 11/M07 A3029 RMK A01 T01051069  RH  029%=      5-min Rain = 0
KCA1 092228Z 01004KT 11/M07 A3029 RMK A01 T01051069  RH  029%=      5-min Rain = 0
KCA1 092229Z 01004KT 11/M07 A3029 RMK A01 T01051071  RH  028%=      5-min Rain = 0
KCA1 092230Z 00005KT 11/M07 A3029 RMK A01 T01051070  RH  029%=      5-min Rain = 0
KCA1 092231Z 01006KT 10/M07 A3029 RMK A01 T01041071  RH  029%=      5-min Rain = 0
KCA1 092232Z 01005KT 10/M07 A3029 RMK A01 T01021071  RH  029%=      5-min Rain = 0
KCA1 092233Z 01006KT 10/M07 A3029 RMK A01 T01011071  RH  029%=      5-min Rain = 0
KCA1 092234Z 01006KT 10/M07 A3029 RMK A01 T01001070  RH  030%=      5-min Rain = 0
KCA1 092235Z 00005KT 10/M07 A3029 RMK A01 T01001069  RH  030%=      5-min Rain = 0
KCA1 092236Z 00005KT 10/M07 A3029 RMK A01 T00991068  RH  030%=      5-min Rain = 0
KCA1 092237Z 35005KT 10/M07 A3029 RMK A01 T00981069  RH  030%=      5-min Rain = 0
KCA1 092238Z 00004KT 10/M07 A3029 RMK A01 T00981068  RH  030%=      5-min Rain = 0
KCA1 092239Z 36004KT 10/M07 A3029 RMK A01 T00971068  RH  031%=      5-min Rain = 0
KCA1 092240Z 00004KT 10/M07 A3029 RMK A01 T00961068  RH  031%=      5-min Rain = 0
KCA1 092241Z 35004KT 10/M07 A3029 RMK A01 T00961068  RH  031%=      5-min Rain = 0
KCA1 092242Z 35003KT 10/M07 A3029 RMK A01 T00951068  RH  031%=      5-min Rain = 0
KCA1 092243Z 35004KT 09/M07 A3029 RMK A01 T00941069  RH  031%=      5-min Rain = 0
KCA1 092244Z 35003KT 09/M07 A3029 RMK A01 T00941069  RH  031%=      5-min Rain = 0
KCA1 092245Z 00003KT 09/M07 A3029 RMK A01 T00931069  RH  031%=      5-min Rain = 0
KCA1 092246Z 00004KT 09/M07 A3029 RMK A01 T00921069  RH  031%=      5-min Rain = 0
KCA1 092247Z 01004KT 09/M07 A3029 RMK A01 T00911070  RH  031%=      5-min Rain = 0
KCA1 092248Z 00004KT 09/M07 A3029 RMK A01 T00901070  RH  032%=      5-min Rain = 0
KCA1 092249Z 00004KT 09/M07 A3029 RMK A01 T00891070  RH  032%=      5-min Rain = 0
KCA1 092250Z 36004KT 09/M07 A3029 RMK A01 T00881071  RH  032%=      5-min Rain = 0
KCA1 092251Z 35004KT 09/M07 A303 RMK A01 T00861071  RH  032%=      5-min Rain = 0
KCA1 092252Z 36005KT 09/M07 A303 RMK A01 T00861071  RH  032%=      5-min Rain = 0
KCA1 092253Z 36005KT 09/M07 A303 RMK A01 T00851071  RH  032%=      5-min Rain = 0
KCA1 092254Z 36005KT 08/M07 A303 RMK A01 T00841071  RH  033%=      5-min Rain = 0
KCA1 092255Z 35005KT 08/M07 A303 RMK A01 T00831072  RH  033%=      5-min Rain = 0
KCA1 092256Z 35005KT 08/M07 A303 RMK A01 T00821071  RH  033%=      5-min Rain = 0
KCA1 092257Z 35005KT 08/M07 A303 RMK A01 T00811072  RH  033%=      5-min Rain = 0
KCA1 092258Z 35006KT 08/M07 A303 RMK A01 T00791072  RH  033%=      5-min Rain = 0
KCA1 092259Z 35006KT 08/M07 A303 RMK A01 T00781072  RH  034%=      5-min Rain = 0
KCA1 092300Z 35006KT 08/M07 A303 RMK A01 T00771072  RH  034%=      5-min Rain = 0
KCA1 092301Z 35006KT 08/M07 A303 RMK A01 T00761073  RH  034%=      5-min Rain = 0
KCA1 092302Z 35006KT 08/M07 A303 RMK A01 T00751072  RH  034%=      5-min Rain = 0
KCA1 092303Z 35005KT 08/M07 A303 RMK A01 T00751072  RH  034%=      5-min Rain = 0
KCA1 092304Z 36005KT 08/M07 A303 RMK A01 T00751072  RH  035%=      5-min Rain = 0
KCA1 092305Z 36005KT 07/M07 A303 RMK A01 T00741072  RH  035%=      5-min Rain = 0
KCA1 092306Z 36005KT 07/M07 A303 RMK A01 T00741072  RH  035%=      5-min Rain = 0
KCA1 092307Z 35005KT 07/M07 A303 RMK A01 T00741072  RH  035%=      5-min Rain = 0
KCA1 092308Z 35005KT 07/M07 A303 RMK A01 T00741072  RH  035%=      5-min Rain = 0
KCA1 092309Z 35005KT 07/M07 A303 RMK A01 T00741072  RH  035%=      5-min Rain = 0
KCA1 092310Z 35005KT 07/M07 A303 RMK A01 T00741072  RH  035%=      5-min Rain = 0
KCA1 092311Z 35005KT 07/M07 A303 RMK A01 T00731073  RH  035%=      5-min Rain = 0
KCA1 092312Z 35005KT 07/M07 A303 RMK A01 T00721073  RH  035%=      5-min Rain = 0
KCA1 092313Z 35005KT 07/M07 A303 RMK A01 T00711073  RH  035%=      5-min Rain = 0
KCA1 092314Z 35005KT 07/M07 A303 RMK A01 T00701073  RH  035%=      5-min Rain = 0
KCA1 092315Z 35005KT 07/M07 A303 RMK A01 T00681073  RH  036%=      5-min Rain = 0
KCA1 092316Z 36005KT 07/M07 A303 RMK A01 T00681073  RH  036%=      5-min Rain = 0
KCA1 092317Z 36005KT 07/M07 A303 RMK A01 T00671074  RH  036%=      5-min Rain = 0
KCA1 092318Z 00005KT 07/M07 A303 RMK A01 T00661073  RH  036%=      5-min Rain = 0
KCA1 092319Z 00006KT 07/M07 A303 RMK A01 T00651074  RH  036%=      5-min Rain = 0
KCA1 092320Z 36006KT 06/M07 A303 RMK A01 T00631074  RH  037%=      5-min Rain = 0
KCA1 092321Z 35006KT 06/M07 A303 RMK A01 T00631073  RH  037%=      5-min Rain = 0
KCA1 092322Z 35006KT 06/M07 A303 RMK A01 T00621073  RH  037%=      5-min Rain = 0
KCA1 092323Z 35006KT 06/M07 A303 RMK A01 T00611073  RH  038%=      5-min Rain = 0
KCA1 092324Z 35006KT 06/M07 A303 RMK A01 T00611073  RH  038%=      5-min Rain = 0
KCA1 092325Z 35006KT 06/M07 A303 RMK A01 T00601073  RH  038%=      5-min Rain = 0
KCA1 092326Z 35006KT 06/M07 A303 RMK A01 T00601072  RH  038%=      5-min Rain = 0
KCA1 092327Z 35007KT 06/M07 A303 RMK A01 T00601072  RH  038%=      5-min Rain = 0
KCA1 092328Z 35007KT 06/M07 A303 RMK A01 T00601072  RH  038%=      5-min Rain = 0
KCA1 092329Z 35007KT 06/M07 A303 RMK A01 T00601072  RH  038%=      5-min Rain = 0
KCA1 092330Z 35007KT 06/M07 A303 RMK A01 T00611071  RH  038%=      5-min Rain = 0
KCA1 092331Z 35007KT 06/M07 A303 RMK A01 T00611072  RH  038%=      5-min Rain = 0
KCA1 092332Z 35007KT 06/M07 A303 RMK A01 T00611071  RH  038%=      5-min Rain = 0
KCA1 092333Z 35007KT 06/M07 A303 RMK A01 T00601071  RH  038%=      5-min Rain = 0
KCA1 092334Z 36007KT 06/M07 A303 RMK A01 T00601071  RH  038%=      5-min Rain = 0
KCA1 092335Z 35007KT 06/M07 A303 RMK A01 T00601071  RH  039%=      5-min Rain = 0
KCA1 092336Z 36007KT 06/M07 A303 RMK A01 T00591071  RH  039%=      5-min Rain = 0
KCA1 092337Z 36007KT 06/M07 A303 RMK A01 T00591071  RH  039%=      5-min Rain = 0
KCA1 092338Z 35007KT 06/M07 A303 RMK A01 T00591071  RH  039%=      5-min Rain = 0
KCA1 092339Z 35007KT 06/M07 A303 RMK A01 T00591071  RH  039%=      5-min Rain = 0
KCA1 092340Z 35007KT 06/M07 A303 RMK A01 T00591072  RH  039%=      5-min Rain = 0
KCA1 092341Z 36007KT 06/M07 A303 RMK A01 T00581072  RH  039%=      5-min Rain = 0
KCA1 092342Z 00007KT 06/M07 A303 RMK A01 T00571073  RH  039%=      5-min Rain = 0
KCA1 092343Z 36007KT 06/M07 A303 RMK A01 T00561072  RH  039%=      5-min Rain = 0
KCA1 092344Z 35007KT 06/M07 A303 RMK A01 T00551072  RH  039%=      5-min Rain = 0
KCA1 092345Z 35007KT 06/M07 A303 RMK A01 T00561071  RH  040%=      5-min Rain = 0
KCA1 092346Z 36007KT 06/M07 A303 RMK A01 T00561071  RH  040%=      5-min Rain = 0
KCA1 092347Z 35007KT 06/M07 A303 RMK A01 T00561071  RH  039%=      5-min Rain = 0
KCA1 092348Z 36007KT 06/M07 A303 RMK A01 T00561071  RH  039%=      5-min Rain = 0
KCA1 092349Z 35007KT 06/M07 A303 RMK A01 T00551072  RH  040%=      5-min Rain = 0
KCA1 092350Z 35008KT 05/M07 A303 RMK A01 T00541072  RH  040%=      5-min Rain = 0
KCA1 092351Z 35008KT 05/M07 A303 RMK A01 T00531072  RH  040%=      5-min Rain = 0
KCA1 092352Z 35008KT 05/M07 A303 RMK A01 T00531072  RH  040%=      5-min Rain = 0
KCA1 092353Z 35008KT 05/M07 A303 RMK A01 T00521072  RH  040%=      5-min Rain = 0
KCA1 092354Z 35008KT 05/M07 A303 RMK A01 T00521072  RH  040%=      5-min Rain = 0
KCA1 092355Z 35008KT 05/M07 A303 RMK A01 T00521072  RH  040%=      5-min Rain = 0
KCA1 092356Z 35008KT 05/M07 A303 RMK A01 T00521072  RH  040%=      5-min Rain = 0
KCA1 092357Z 36008KT 05/M07 A303 RMK A01 T00511072  RH  040%=      5-min Rain = 0
KCA1 092358Z 36008KT 05/M07 A303 RMK A01 T00521071  RH  041%=      5-min Rain = 0
KCA1 092359Z 36008KT 05/M07 A303 RMK A01 T00511072  RH  041%=      5-min Rain = 0
KCA1 100000Z 35008KT 05/M07 A303 RMK A01 T00521071  RH  041%=      5-min Rain = 0
KCA1 100001Z 35008KT 05/M07 A303 RMK A01 T00521071  RH  041%=      5-min Rain = 0
KCA1 100002Z 35007KT 05/M07 A303 RMK A01 T00521071  RH  041%=      5-min Rain = 0
KCA1 100003Z 00008KT 05/M07 A303 RMK A01 T00521071  RH  041%=      5-min Rain = 0
KCA1 100004Z 35008KT 05/M07 A303 RMK A01 T00521070  RH  041%=      5-min Rain = 0
KCA1 100005Z 35008KT 05/M07 A303 RMK A01 T00521071  RH  041%=      5-min Rain = 0
KCA1 100006Z 36008KT 05/M07 A303 RMK A01 T00521071  RH  041%=      5-min Rain = 0
KCA1 100007Z 36008KT 05/M07 A303 RMK A01 T00521071  RH  041%=      5-min Rain = 0
KCA1 100008Z 36008KT 05/M07 A303 RMK A01 T00511071  RH  041%=      5-min Rain = 0
KCA1 100009Z 35008KT 05/M07 A303 RMK A01 T00501071  RH  041%=      5-min Rain = 0
KCA1 100010Z 35008KT 05/M07 A303 RMK A01 T00501071  RH  041%=      5-min Rain = 0
KCA1 100011Z 35007KT 05/M07 A3031 RMK A01 T00501071  RH  041%=      5-min Rain = 0
KCA1 100012Z 35007KT 05/M07 A3031 RMK A01 T00501071  RH  041%=      5-min Rain = 0
KCA1 100013Z 36007KT 05/M07 A3031 RMK A01 T00491071  RH  041%=      5-min Rain = 0
KCA1 100014Z 00007KT 05/M07 A3031 RMK A01 T00491071  RH  041%=      5-min Rain = 0
KCA1 100015Z 00007KT 05/M07 A3031 RMK A01 T00491071  RH  042%=      5-min Rain = 0
KCA1 100016Z 00007KT 05/M07 A3031 RMK A01 T00471072  RH  042%=      5-min Rain = 0
KCA1 100017Z 00007KT 05/M07 A3031 RMK A01 T00471072  RH  042%=      5-min Rain = 0
KCA1 100018Z 00007KT 05/M07 A3031 RMK A01 T00461072  RH  042%=      5-min Rain = 0
KCA1 100019Z 00007KT 05/M07 A3031 RMK A01 T00451072  RH  042%=      5-min Rain = 0
KCA1 100020Z 00007KT 05/M07 A3031 RMK A01 T00451072  RH  042%=      5-min Rain = 0
KCA1 100021Z 00007KT 05/M07 A3031 RMK A01 T00451072  RH  042%=      5-min Rain = 0
KCA1 100022Z 00007KT 04/M07 A3031 RMK A01 T00441072  RH  043%=      5-min Rain = 0
KCA1 100023Z 00007KT 04/M07 A3031 RMK A01 T00441073  RH  043%=      5-min Rain = 0
KCA1 100024Z 00007KT 04/M07 A3031 RMK A01 T00431073  RH  043%=      5-min Rain = 0
KCA1 100025Z 00007KT 04/M07 A3031 RMK A01 T00421073  RH  043%=      5-min Rain = 0
KCA1 100026Z 00007KT 04/M07 A3031 RMK A01 T00411073  RH  043%=      5-min Rain = 0
KCA1 100027Z 00007KT 04/M07 A3031 RMK A01 T00411072  RH  043%=      5-min Rain = 0
KCA1 100028Z 00007KT 04/M07 A3031 RMK A01 T00411071  RH  044%=      5-min Rain = 0
KCA1 100029Z 00006KT 04/M07 A3031 RMK A01 T00421071  RH  044%=      5-min Rain = 0
KCA1 100030Z 00006KT 04/M07 A3031 RMK A01 T00431070  RH  044%=      5-min Rain = 0
KCA1 100031Z 36006KT 04/M07 A3031 RMK A01 T00441070  RH  043%=      5-min Rain = 0
KCA1 100032Z 35006KT 04/M07 A3031 RMK A01 T00441070  RH  043%=      5-min Rain = 0
KCA1 100033Z 35006KT 04/M07 A3031 RMK A01 T00441070  RH  043%=      5-min Rain = 0
KCA1 100034Z 35006KT 04/M07 A3031 RMK A01 T00441070  RH  043%=      5-min Rain = 0
KCA1 100035Z 35006KT 04/M07 A3031 RMK A01 T00441070  RH  043%=      5-min Rain = 0
KCA1 100036Z 35006KT 04/M07 A3031 RMK A01 T00431071  RH  043%=      5-min Rain = 0
KCA1 100037Z 35006KT 04/M07 A3031 RMK A01 T00411072  RH  044%=      5-min Rain = 0
KCA1 100038Z 35006KT 04/M07 A3031 RMK A01 T00401072  RH  044%=      5-min Rain = 0
KCA1 100039Z 35006KT 04/M07 A3031 RMK A01 T00391072  RH  044%=      5-min Rain = 0
KCA1 100040Z 35006KT 04/M07 A3031 RMK A01 T00381072  RH  045%=      5-min Rain = 0
KCA1 100041Z 35006KT 04/M07 A3031 RMK A01 T00381071  RH  045%=      5-min Rain = 0
KCA1 100042Z 35006KT 04/M07 A3031 RMK A01 T00381071  RH  045%=      5-min Rain = 0
KCA1 100043Z 35006KT 04/M07 A3031 RMK A01 T00371071  RH  045%=      5-min Rain = 0
KCA1 100044Z 34006KT 04/M07 A3031 RMK A01 T00371070  RH  045%=      5-min Rain = 0
KCA1 100045Z 34006KT 04/M07 A3031 RMK A01 T00371070  RH  045%=      5-min Rain = 0
KCA1 100046Z 34006KT 04/M07 A3031 RMK A01 T00371070  RH  046%=      5-min Rain = 0
KCA1 100047Z 35006KT 04/M07 A3031 RMK A01 T00371069  RH  046%=      5-min Rain = 0
KCA1 100048Z 35006KT 04/M07 A3031 RMK A01 T00381069  RH  046%=      5-min Rain = 0
KCA1 100049Z 35006KT 04/M07 A3031 RMK A01 T00381068  RH  046%=      5-min Rain = 0
KCA1 100050Z 35006KT 04/M07 A3031 RMK A01 T00391068  RH  045%=      5-min Rain = 0
KCA1 100051Z 36006KT 04/M07 A3031 RMK A01 T00391069  RH  045%=      5-min Rain = 0
KCA1 100052Z 36006KT 04/M07 A3031 RMK A01 T00391069  RH  045%=      5-min Rain = 0
KCA1 100053Z 00005KT 04/M07 A3031 RMK A01 T00391069  RH  045%=      5-min Rain = 0
KCA1 100054Z 36005KT 04/M07 A3031 RMK A01 T00391069  RH  045%=      5-min Rain = 0
KCA1 100055Z 36005KT 04/M07 A3031 RMK A01 T00391069  RH  045%=      5-min Rain = 0
KCA1 100056Z 36005KT 04/M07 A3031 RMK A01 T00391069  RH  045%=      5-min Rain = 0
KCA1 100057Z 35006KT 04/M07 A3031 RMK A01 T00381069  RH  045%=      5-min Rain = 0
KCA1 100058Z 36005KT 04/M07 A3031 RMK A01 T00371070  RH  045%=      5-min Rain = 0
KCA1 100059Z 36005KT 04/M07 A3031 RMK A01 T00351071  RH  046%=      5-min Rain = 0
KCA1 100100Z 00005KT 03/M07 A3031 RMK A01 T00341072  RH  046%=      5-min Rain = 0
KCA1 100101Z 00003KT 03/M07 A3031 RMK A01 T00321072  RH  046%=      5-min Rain = 0
KCA1 100102Z 30001KT 03/M07 A3031 RMK A01 T00311072  RH  047%=      5-min Rain = 0
KCA1 100103Z 23001KT 03/M07 A3031 RMK A01 T00291073  RH  047%=      5-min Rain = 0
KCA1 100104Z 33002KT 03/M07 A3031 RMK A01 T00281072  RH  048%=      5-min Rain = 0
KCA1 100105Z 32001KT 03/M07 A3031 RMK A01 T00291071  RH  048%=      5-min Rain = 0
KCA1 100106Z 33002KT 03/M07 A3031 RMK A01 T00301071  RH  047%=      5-min Rain = 0
KCA1 100107Z 33001KT 03/M07 A3031 RMK A01 T00301071  RH  047%=      5-min Rain = 0
KCA1 100108Z 32001KT 03/M07 A3031 RMK A01 T00301071  RH  047%=      5-min Rain = 0
KCA1 100109Z 32002KT 03/M07 A3031 RMK A01 T00301071  RH  047%=      5-min Rain = 0
KCA1 100110Z 32001KT 03/M07 A3031 RMK A01 T00301071  RH  047%=      5-min Rain = 0
KCA1 100111Z 26001KT 03/M07 A3031 RMK A01 T00301071  RH  047%=      5-min Rain = 0
KCA1 100112Z 26001KT 03/M07 A3031 RMK A01 T00301071  RH  047%=      5-min Rain = 0
KCA1 100113Z 26001KT 03/M07 A3031 RMK A01 T00301071  RH  048%=      5-min Rain = 0
KCA1 100114Z 25001KT 03/M07 A3031 RMK A01 T00311071  RH  047%=      5-min Rain = 0
KCA1 100115Z 25000KT 03/M07 A3031 RMK A01 T00311071  RH  047%=      5-min Rain = 0
KCA1 100116Z 26000KT 03/M07 A3031 RMK A01 T00331070  RH  047%=      5-min Rain = 0
KCA1 100117Z 25000KT 03/M07 A3031 RMK A01 T00341069  RH  047%=      5-min Rain = 0
KCA1 100118Z 26001KT 03/M07 A3031 RMK A01 T00341070  RH  047%=      5-min Rain = 0
KCA1 100119Z 26001KT 04/M07 A3031 RMK A01 T00351070  RH  046%=      5-min Rain = 0
KCA1 100120Z 28001KT 04/M07 A3031 RMK A01 T00351070  RH  046%=      5-min Rain = 0
KCA1 100121Z 32001KT 03/M07 A3031 RMK A01 T00341070  RH  046%=      5-min Rain = 0
KCA1 100122Z 33001KT 04/M07 A3031 RMK A01 T00351070  RH  046%=      5-min Rain = 0
KCA1 100123Z 34001KT 04/M07 A3031 RMK A01 T00351070  RH  046%=      5-min Rain = 0
KCA1 100124Z 35001KT 03/M07 A3031 RMK A01 T00341070  RH  046%=      5-min Rain = 0
KCA1 100125Z 36001KT 04/M07 A3031 RMK A01 T00351070  RH  046%=      5-min Rain = 0
KCA1 100126Z 35001KT 04/M07 A3031 RMK A01 T00351070  RH  046%=      5-min Rain = 0
KCA1 100127Z 35001KT 04/M07 A3031 RMK A01 T00351070  RH  046%=      5-min Rain = 0
KCA1 100128Z 35001KT 04/M07 A3031 RMK A01 T00361069  RH  046%=      5-min Rain = 0
KCA1 100129Z 34001KT 04/M07 A3031 RMK A01 T00351071  RH  046%=      5-min Rain = 0
KCA1 100130Z 33001KT 03/M07 A3031 RMK A01 T00341071  RH  046%=      5-min Rain = 0
KCA1 100131Z 33001KT 03/M07 A3032 RMK A01 T00331071  RH  046%=      5-min Rain = 0
KCA1 100132Z 33001KT 03/M07 A3032 RMK A01 T00321071  RH  046%=      5-min Rain = 0
KCA1 100133Z 33001KT 03/M07 A3032 RMK A01 T00311073  RH  047%=      5-min Rain = 0
KCA1 100134Z 33001KT 03/M07 A3032 RMK A01 T00291072  RH  047%=      5-min Rain = 0
KCA1 100135Z 33001KT 03/M07 A3032 RMK A01 T00281072  RH  048%=      5-min Rain = 0
KCA1 100136Z 33001KT 03/M07 A3032 RMK A01 T00281072  RH  048%=      5-min Rain = 0
KCA1 100137Z 33000KT 03/M07 A3032 RMK A01 T00261073  RH  048%=      5-min Rain = 0
KCA1 100138Z 33000KT 03/M07 A3032 RMK A01 T00251074  RH  048%=      5-min Rain = 0
KCA1 100139Z 33000KT 02/M07 A3032 RMK A01 T00241073  RH  049%=      5-min Rain = 0
KCA1 100140Z 00000KT 03/M07 A3032 RMK A01 T00251071  RH  049%=      5-min Rain = 0
KCA1 100141Z 00000KT 03/M07 A3032 RMK A01 T00271070  RH  049%=      5-min Rain = 0
KCA1 100142Z 00000KT 03/M07 A3032 RMK A01 T00271071  RH  048%=      5-min Rain = 0
KCA1 100143Z 28001KT 03/M07 A3032 RMK A01 T00261072  RH  048%=      5-min Rain = 0
KCA1 100144Z 26001KT 02/M07 A3032 RMK A01 T00241073  RH  049%=      5-min Rain = 0
KCA1 100145Z 26001KT 02/M07 A3032 RMK A01 T00231074  RH  049%=      5-min Rain = 0
KCA1 100146Z 24002KT 02/M07 A3032 RMK A01 T00211073  RH  050%=      5-min Rain = 0
KCA1 100147Z 25002KT 02/M07 A3032 RMK A01 T00221071  RH  050%=      5-min Rain = 0
KCA1 100148Z 24002KT 02/M07 A3032 RMK A01 T00221072  RH  050%=      5-min Rain = 0
KCA1 100149Z 25002KT 02/M07 A3032 RMK A01 T00231072  RH  050%=      5-min Rain = 0
KCA1 100150Z 27002KT 02/M07 A3032 RMK A01 T00231071  RH  050%=      5-min Rain = 0
KCA1 100151Z 27002KT 02/M07 A3032 RMK A01 T00241070  RH  050%=      5-min Rain = 0
KCA1 100152Z 27001KT 03/M07 A3032 RMK A01 T00281067  RH  050%=      5-min Rain = 0
KCA1 100153Z 25001KT 03/M07 A3032 RMK A01 T00301068  RH  049%=      5-min Rain = 0
KCA1 100154Z 25001KT 03/M07 A3032 RMK A01 T00291069  RH  048%=      5-min Rain = 0
KCA1 100155Z 26001KT 03/M07 A3032 RMK A01 T00291070  RH  048%=      5-min Rain = 0
KCA1 100156Z 28001KT 03/M07 A3032 RMK A01 T00281071  RH  048%=      5-min Rain = 0
KCA1 100157Z 29002KT 03/M07 A3032 RMK A01 T00261072  RH  048%=      5-min Rain = 0
KCA1 100158Z 29002KT 02/M07 A3032 RMK A01 T00241073  RH  049%=      5-min Rain = 0
KCA1 100159Z 29002KT 02/M08 A3032 RMK A01 T00191077  RH  049%=      5-min Rain = 0
KCA1 100200Z 28002KT 02/M08 A3031 RMK A01 T00161075  RH  051%=      5-min Rain = 0
KCA1 100201Z 28002KT 02/M07 A3031 RMK A01 T00161074  RH  051%=      5-min Rain = 0
KCA1 100202Z 27002KT 02/M07 A3031 RMK A01 T00161074  RH  051%=      5-min Rain = 0
KCA1 100203Z 27002KT 02/M07 A3031 RMK A01 T00171073  RH  051%=      5-min Rain = 0
KCA1 100204Z 27002KT 02/M07 A3031 RMK A01 T00171073  RH  051%=      5-min Rain = 0
KCA1 100205Z 27001KT 02/M08 A3031 RMK A01 T00161075  RH  051%=      5-min Rain = 0
KCA1 100206Z 27002KT 02/M07 A3031 RMK A01 T00151074  RH  052%=      5-min Rain = 0
KCA1 100207Z 27001KT 02/M07 A3031 RMK A01 T00161073  RH  052%=      5-min Rain = 0
KCA1 100208Z 27002KT 02/M07 A3031 RMK A01 T00161073  RH  052%=      5-min Rain = 0
KCA1 100209Z 28002KT 02/M07 A3031 RMK A01 T00151074  RH  052%=      5-min Rain = 0
KCA1 100210Z 30002KT 02/M07 A3031 RMK A01 T00151074  RH  051%=      5-min Rain = 0
KCA1 100211Z 32001KT 01/M08 A3031 RMK A01 T00131077  RH  051%=      5-min Rain = 0
KCA1 100212Z 33001KT 01/M08 A3031 RMK A01 T00091079  RH  052%=      5-min Rain = 0
KCA1 100213Z 33001KT 01/M08 A3031 RMK A01 T00071076  RH  054%=      5-min Rain = 0
KCA1 100214Z 33001KT 01/M07 A3031 RMK A01 T00081074  RH  054%=      5-min Rain = 0
KCA1 100215Z 33001KT 01/M07 A3031 RMK A01 T00101073  RH  054%=      5-min Rain = 0
KCA1 100216Z 32001KT 01/M07 A3031 RMK A01 T00131070  RH  054%=      5-min Rain = 0
KCA1 100217Z 30001KT 02/M07 A3031 RMK A01 T00161068  RH  054%=      5-min Rain = 0
KCA1 100218Z 29001KT 02/M07 A3031 RMK A01 T00181068  RH  053%=      5-min Rain = 0
KCA1 100219Z 26001KT 02/M07 A3031 RMK A01 T00211066  RH  053%=      5-min Rain = 0
KCA1 100220Z 26002KT 02/M07 A3032 RMK A01 T00241065  RH  052%=      5-min Rain = 0
KCA1 100221Z 26002KT 03/M06 A3032 RMK A01 T00271064  RH  051%=      5-min Rain = 0
KCA1 100222Z 26003KT 03/M06 A3032 RMK A01 T00301064  RH  050%=      5-min Rain = 0
KCA1 100223Z 25004KT 03/M06 A3032 RMK A01 T00321064  RH  049%=      5-min Rain = 0
KCA1 100224Z 25004KT 03/M07 A3032 RMK A01 T00331065  RH  049%=      5-min Rain = 0
KCA1 100225Z 25004KT 03/M07 A3032 RMK A01 T00331066  RH  048%=      5-min Rain = 0
KCA1 100226Z 25004KT 03/M07 A3032 RMK A01 T00331066  RH  048%=      5-min Rain = 0
KCA1 100227Z 26004KT 03/M07 A3032 RMK A01 T00331067  RH  048%=      5-min Rain = 0
KCA1 100228Z 26004KT 03/M07 A3032 RMK A01 T00311067  RH  048%=      5-min Rain = 0
KCA1 100229Z 27005KT 03/M07 A3032 RMK A01 T00301067  RH  049%=      5-min Rain = 0
KCA1 100230Z 27004KT 03/M07 A3032 RMK A01 T00291068  RH  049%=      5-min Rain = 0
KCA1 100231Z 28005KT 03/M07 A3032 RMK A01 T00281068  RH  049%=      5-min Rain = 0
KCA1 100232Z 28005KT 03/M07 A3032 RMK A01 T00261069  RH  049%=      5-min Rain = 0
KCA1 100233Z 29004KT 03/M07 A3032 RMK A01 T00251070  RH  050%=      5-min Rain = 0
KCA1 100234Z 29004KT 02/M07 A3032 RMK A01 T00231070  RH  050%=      5-min Rain = 0
KCA1 100235Z 29004KT 02/M07 A3032 RMK A01 T00221071  RH  050%=      5-min Rain = 0
KCA1 100236Z 29004KT 02/M07 A3032 RMK A01 T00211070  RH  051%=      5-min Rain = 0
KCA1 100237Z 29004KT 02/M07 A3032 RMK A01 T00211069  RH  051%=      5-min Rain = 0
KCA1 100238Z 30004KT 02/M07 A3032 RMK A01 T00211069  RH  051%=      5-min Rain = 0
KCA1 100239Z 30005KT 02/M07 A3032 RMK A01 T00201071  RH  051%=      5-min Rain = 0
KCA1 100240Z 29005KT 02/M07 A3032 RMK A01 T00181071  RH  051%=      5-min Rain = 0
KCA1 100241Z 29005KT 02/M07 A3032 RMK A01 T00171072  RH  052%=      5-min Rain = 0
KCA1 100242Z 30005KT 02/M07 A3032 RMK A01 T00171071  RH  052%=      5-min Rain = 0
KCA1 100243Z 30005KT 02/M07 A3032 RMK A01 T00161071  RH  052%=      5-min Rain = 0
KCA1 100244Z 30005KT 02/M07 A3032 RMK A01 T00161071  RH  053%=      5-min Rain = 0
KCA1 100245Z 30005KT 02/M07 A3032 RMK A01 T00161071  RH  053%=      5-min Rain = 0
KCA1 100246Z 30005KT 02/M07 A3032 RMK A01 T00151071  RH  053%=      5-min Rain = 0
KCA1 100247Z 30005KT 02/M07 A3032 RMK A01 T00151071  RH  053%=      5-min Rain = 0
KCA1 100248Z 30005KT 01/M07 A3032 RMK A01 T00141071  RH  053%=      5-min Rain = 0
KCA1 100249Z 30005KT 01/M07 A3032 RMK A01 T00141071  RH  053%=      5-min Rain = 0
KCA1 100250Z 29005KT 01/M07 A3032 RMK A01 T00131071  RH  053%=      5-min Rain = 0
KCA1 100251Z 29005KT 01/M07 A3032 RMK A01 T00131071  RH  053%=      5-min Rain = 0
KCA1 100252Z 29005KT 01/M07 A3032 RMK A01 T00131071  RH  053%=      5-min Rain = 0
KCA1 100253Z 29006KT 01/M07 A3032 RMK A01 T00131071  RH  053%=      5-min Rain = 0
KCA1 100254Z 29006KT 01/M07 A3032 RMK A01 T00131071  RH  054%=      5-min Rain = 0
KCA1 100255Z 29006KT 01/M07 A3032 RMK A01 T00131071  RH  054%=      5-min Rain = 0
KCA1 100256Z 29006KT 01/M07 A3032 RMK A01 T00121071  RH  054%=      5-min Rain = 0
KCA1 100257Z 29006KT 01/M07 A3032 RMK A01 T00111072  RH  054%=      5-min Rain = 0
KCA1 100258Z 29006KT 01/M07 A3032 RMK A01 T00111071  RH  054%=      5-min Rain = 0
KCA1 100259Z 29006KT 01/M07 A3032 RMK A01 T00101072  RH  054%=      5-min Rain = 0
KCA1 100300Z 29006KT 01/M07 A3032 RMK A01 T00091072  RH  054%=      5-min Rain = 0
KCA1 100301Z 28006KT 01/M07 A3032 RMK A01 T00091072  RH  055%=      5-min Rain = 0
KCA1 100302Z 28006KT 01/M07 A3032 RMK A01 T00091072  RH  055%=      5-min Rain = 0
KCA1 100303Z 28006KT 01/M07 A3032 RMK A01 T00081072  RH  055%=      5-min Rain = 0
KCA1 100304Z 28006KT 01/M07 A3032 RMK A01 T00081072  RH  055%=      5-min Rain = 0
KCA1 100305Z 28006KT 01/M07 A3032 RMK A01 T00081071  RH  055%=      5-min Rain = 0
KCA1 100306Z 28006KT 01/M07 A3032 RMK A01 T00071072  RH  055%=      5-min Rain = 0
KCA1 100307Z 28006KT 01/M07 A3032 RMK A01 T00071072  RH  056%=      5-min Rain = 0
KCA1 100308Z 28006KT 01/M07 A3032 RMK A01 T00061072  RH  056%=      5-min Rain = 0
KCA1 100309Z 28006KT 01/M07 A3032 RMK A01 T00051072  RH  056%=      5-min Rain = 0
KCA1 100310Z 28006KT 01/M07 A3032 RMK A01 T00051072  RH  056%=      5-min Rain = 0
KCA1 100311Z 29006KT 01/M07 A3032 RMK A01 T00051072  RH  056%=      5-min Rain = 0
KCA1 100312Z 29006KT 00/M07 A3032 RMK A01 T00041073  RH  056%=      5-min Rain = 0
KCA1 100313Z 28006KT 00/M07 A3032 RMK A01 T00031073  RH  057%=      5-min Rain = 0
KCA1 100314Z 28006KT 00/M07 A3032 RMK A01 T00021073  RH  057%=      5-min Rain = 0
KCA1 100315Z 28006KT 00/M07 A3032 RMK A01 T00021073  RH  057%=      5-min Rain = 0
KCA1 100316Z 29006KT 00/M07 A3032 RMK A01 T00021072  RH  057%=      5-min Rain = 0
KCA1 100317Z 29006KT 00/M07 A3032 RMK A01 T00011073  RH  058%=      5-min Rain = 0
KCA1 100318Z 29006KT 00/M07 A3032 RMK A01 T00011072  RH  058%=      5-min Rain = 0
KCA1 100319Z 29006KT 00/M07 A3032 RMK A01 T00011072  RH  058%=      5-min Rain = 0
KCA1 100320Z 29006KT 00/M07 A3032 RMK A01 T00011072  RH  058%=      5-min Rain = 0
KCA1 100321Z 29005KT 00/M07 A3032 RMK A01 T00011072  RH  058%=      5-min Rain = 0
KCA1 100322Z 29005KT 00/07 A3032 RMK A01 T00000-73  RH  058%=      5-min Rain = 0
KCA1 100323Z 29006KT M00/M07 A3032 RMK A01 T10011073  RH  058%=      5-min Rain = 0
KCA1 100324Z 29006KT M00/M07 A3032 RMK A01 T10021073  RH  058%=      5-min Rain = 0
KCA1 100325Z 29006KT M00/M07 A3032 RMK A01 T10021073  RH  059%=      5-min Rain = 0
KCA1 100326Z 29006KT M00/M07 A3032 RMK A01 T10021073  RH  059%=      5-min Rain = 0
KCA1 100327Z 29006KT M00/M07 A3032 RMK A01 T10021073  RH  059%=      5-min Rain = 0
KCA1 100328Z 29005KT M00/M07 A3032 RMK A01 T10031073  RH  059%=      5-min Rain = 0
KCA1 100329Z 29006KT M00/M07 A3032 RMK A01 T10041073  RH  059%=      5-min Rain = 0
KCA1 100330Z 29006KT M01/M07 A3032 RMK A01 T10051074  RH  060%=      5-min Rain = 0
KCA1 100331Z 29006KT M01/M07 A3032 RMK A01 T10051074  RH  060%=      5-min Rain = 0
KCA1 100332Z 29006KT M01/M07 A3032 RMK A01 T10061074  RH  060%=      5-min Rain = 0
KCA1 100333Z 29006KT M01/M07 A3032 RMK A01 T10061074  RH  060%=      5-min Rain = 0
KCA1 100334Z 29006KT M01/M07 A3032 RMK A01 T10061073  RH  060%=      5-min Rain = 0
KCA1 100335Z 29006KT M01/M07 A3032 RMK A01 T10071074  RH  061%=      5-min Rain = 0
KCA1 100336Z 29006KT M01/M07 A3032 RMK A01 T10071073  RH  061%=      5-min Rain = 0
KCA1 100337Z 29006KT M01/M07 A3032 RMK A01 T10071073  RH  061%=      5-min Rain = 0
KCA1 100338Z 29006KT M01/M07 A3032 RMK A01 T10071073  RH  061%=      5-min Rain = 0
KCA1 100339Z 30006KT M01/M07 A3032 RMK A01 T10071073  RH  061%=      5-min Rain = 0
KCA1 100340Z 30006KT M01/M07 A3032 RMK A01 T10071073  RH  061%=      5-min Rain = 0
KCA1 100341Z 30006KT M01/M07 A3032 RMK A01 T10061073  RH  061%=      5-min Rain = 0
KCA1 100342Z 30006KT M01/M07 A3032 RMK A01 T10061073  RH  061%=      5-min Rain = 0
KCA1 100343Z 30006KT M01/M07 A3032 RMK A01 T10061073  RH  060%=      5-min Rain = 0
KCA1 100344Z 30006KT M01/M07 A3032 RMK A01 T10061073  RH  060%=      5-min Rain = 0
KCA1 100345Z 30006KT M01/M07 A3032 RMK A01 T10061073  RH  060%=      5-min Rain = 0
KCA1 100346Z 30006KT M01/M07 A3032 RMK A01 T10051072  RH  061%=      5-min Rain = 0
KCA1 100347Z 30006KT M01/M07 A3032 RMK A01 T10051072  RH  060%=      5-min Rain = 0
KCA1 100348Z 29006KT M00/M07 A3032 RMK A01 T10041072  RH  060%=      5-min Rain = 0
KCA1 100349Z 30006KT M00/M07 A3032 RMK A01 T10041072  RH  060%=      5-min Rain = 0
KCA1 100350Z 29006KT M00/M07 A3032 RMK A01 T10041072  RH  060%=      5-min Rain = 0
KCA1 100351Z 29006KT M01/M07 A3032 RMK A01 T10051072  RH  061%=      5-min Rain = 0
KCA1 100352Z 29006KT M01/M07 A3032 RMK A01 T10051071  RH  061%=      5-min Rain = 0
KCA1 100353Z 29005KT M01/M07 A3032 RMK A01 T10051072  RH  061%=      5-min Rain = 0
KCA1 100354Z 30005KT M01/M07 A3032 RMK A01 T10051072  RH  061%=      5-min Rain = 0
KCA1 100355Z 30006KT M01/M07 A3032 RMK A01 T10051072  RH  061%=      5-min Rain = 0
KCA1 100356Z 30005KT M01/M07 A3032 RMK A01 T10061073  RH  061%=      5-min Rain = 0
KCA1 100357Z 30006KT M01/M07 A3032 RMK A01 T10071074  RH  061%=      5-min Rain = 0
KCA1 100358Z 30005KT M01/M07 A3032 RMK A01 T10081073  RH  061%=      5-min Rain = 0
KCA1 100359Z 30006KT M01/M07 A3032 RMK A01 T10091074  RH  062%=      5-min Rain = 0
KCA1 100400Z 30006KT M01/M07 A3032 RMK A01 T10101073  RH  062%=      5-min Rain = 0
KCA1 100401Z 30006KT M01/M07 A3032 RMK A01 T10101073  RH  062%=      5-min Rain = 0
KCA1 100402Z 30006KT M01/M07 A3032 RMK A01 T10101073  RH  062%=      5-min Rain = 0
KCA1 100403Z 30006KT M01/M07 A3032 RMK A01 T10101073  RH  062%=      5-min Rain = 0
KCA1 100404Z 30005KT M01/M07 A3032 RMK A01 T10101073  RH  062%=      5-min Rain = 0
KCA1 100405Z 30006KT M01/M07 A3032 RMK A01 T10101073  RH  062%=      5-min Rain = 0
KCA1 100406Z 30005KT M01/M07 A3032 RMK A01 T10111074  RH  062%=      5-min Rain = 0
KCA1 100407Z 30005KT M01/M07 A3032 RMK A01 T10111074  RH  063%=      5-min Rain = 0
KCA1 100408Z 30006KT M01/M07 A3032 RMK A01 T10121073  RH  063%=      5-min Rain = 0
KCA1 100409Z 30005KT M01/M07 A3032 RMK A01 T10111072  RH  063%=      5-min Rain = 0
KCA1 100410Z 30005KT M01/M07 A3032 RMK A01 T10111072  RH  063%=      5-min Rain = 0
KCA1 100411Z 30005KT M01/M07 A3032 RMK A01 T10111073  RH  063%=      5-min Rain = 0
KCA1 100412Z 29005KT M01/M07 A3032 RMK A01 T10111073  RH  063%=      5-min Rain = 0
KCA1 100413Z 30005KT M01/M07 A3032 RMK A01 T10111073  RH  063%=      5-min Rain = 0
KCA1 100414Z 30005KT M01/M07 A3032 RMK A01 T10121073  RH  063%=      5-min Rain = 0
KCA1 100415Z 30006KT M01/M07 A3032 RMK A01 T10121073  RH  063%=      5-min Rain = 0
KCA1 100416Z 30005KT M01/M07 A3032 RMK A01 T10121073  RH  063%=      5-min Rain = 0
KCA1 100417Z 30006KT M01/M07 A3032 RMK A01 T10121073  RH  064%=      5-min Rain = 0
KCA1 100418Z 30006KT M01/M07 A3032 RMK A01 T10121073  RH  063%=      5-min Rain = 0
KCA1 100419Z 30006KT M01/M07 A3032 RMK A01 T10131073  RH  064%=      5-min Rain = 0
KCA1 100420Z 30006KT M01/M07 A3032 RMK A01 T10131073  RH  064%=      5-min Rain = 0
KCA1 100421Z 30006KT M01/M07 A3032 RMK A01 T10131073  RH  064%=      5-min Rain = 0
KCA1 100422Z 30006KT M01/M07 A3032 RMK A01 T10121072  RH  064%=      5-min Rain = 0
KCA1 100423Z 30006KT M01/M07 A3032 RMK A01 T10121072  RH  064%=      5-min Rain = 0
KCA1 100424Z 31006KT M01/M07 A3032 RMK A01 T10121072  RH  064%=      5-min Rain = 0
KCA1 100425Z 31006KT M01/M07 A3032 RMK A01 T10111072  RH  064%=      5-min Rain = 0
KCA1 100426Z 30006KT M01/M07 A3032 RMK A01 T10121072  RH  063%=      5-min Rain = 0
KCA1 100427Z 30006KT M01/M07 A3032 RMK A01 T10121072  RH  064%=      5-min Rain = 0
KCA1 100428Z 30006KT M01/M07 A3032 RMK A01 T10131072  RH  064%=      5-min Rain = 0
KCA1 100429Z 31006KT M01/M07 A3032 RMK A01 T10131073  RH  064%=      5-min Rain = 0
KCA1 100430Z 30006KT M01/M07 A3032 RMK A01 T10131073  RH  064%=      5-min Rain = 0
KCA1 100431Z 30005KT M01/M07 A3032 RMK A01 T10121072  RH  064%=      5-min Rain = 0
KCA1 100432Z 31005KT M01/M07 A3032 RMK A01 T10131073  RH  064%=      5-min Rain = 0
KCA1 100433Z 30006KT M01/M07 A3032 RMK A01 T10141074  RH  064%=      5-min Rain = 0
KCA1 100434Z 30006KT M02/M07 A3032 RMK A01 T10151074  RH  064%=      5-min Rain = 0
KCA1 100435Z 30005KT M02/M07 A3032 RMK A01 T10161074  RH  064%=      5-min Rain = 0
KCA1 100436Z 31005KT M02/M07 A3032 RMK A01 T10161074  RH  065%=      5-min Rain = 0
KCA1 100437Z 30005KT M02/M07 A3032 RMK A01 T10161074  RH  065%=      5-min Rain = 0
KCA1 100438Z 31006KT M02/M07 A3032 RMK A01 T10171074  RH  065%=      5-min Rain = 0
KCA1 100439Z 30006KT M02/M08 A3032 RMK A01 T10171075  RH  065%=      5-min Rain = 0
KCA1 100440Z 31006KT M02/M07 A3032 RMK A01 T10171074  RH  065%=      5-min Rain = 0
KCA1 100441Z 30005KT M02/M07 A3032 RMK A01 T10161073  RH  065%=      5-min Rain = 0
KCA1 100442Z 31005KT M01/M07 A3032 RMK A01 T10141073  RH  064%=      5-min Rain = 0
KCA1 100443Z 30005KT M01/M07 A3032 RMK A01 T10141073  RH  064%=      5-min Rain = 0
KCA1 100444Z 30005KT M01/M07 A3032 RMK A01 T10131073  RH  064%=      5-min Rain = 0
KCA1 100445Z 30006KT M01/M07 A3032 RMK A01 T10131073  RH  063%=      5-min Rain = 0
KCA1 100446Z 30005KT M01/M07 A3032 RMK A01 T10121073  RH  063%=      5-min Rain = 0
KCA1 100447Z 30006KT M01/M07 A3032 RMK A01 T10121074  RH  063%=      5-min Rain = 0
KCA1 100448Z 30006KT M01/M07 A3032 RMK A01 T10121073  RH  063%=      5-min Rain = 0
KCA1 100449Z 31005KT M01/M07 A3032 RMK A01 T10111072  RH  063%=      5-min Rain = 0
KCA1 100450Z 30005KT M01/M07 A3032 RMK A01 T10101073  RH  063%=      5-min Rain = 0
KCA1 100451Z 31005KT M01/M07 A3032 RMK A01 T10101073  RH  063%=      5-min Rain = 0
KCA1 100452Z 31005KT M01/M07 A3032 RMK A01 T10101073  RH  062%=      5-min Rain = 0
KCA1 100453Z 31005KT M01/M07 A3032 RMK A01 T10101073  RH  062%=      5-min Rain = 0
KCA1 100454Z 31005KT M01/M07 A3032 RMK A01 T10101073  RH  062%=      5-min Rain = 0
KCA1 100455Z 31005KT M01/M07 A3032 RMK A01 T10111073  RH  062%=      5-min Rain = 0
KCA1 100456Z 31005KT M01/M07 A3032 RMK A01 T10111073  RH  063%=      5-min Rain = 0
KCA1 100457Z 31005KT M01/M07 A3032 RMK A01 T10111073  RH  063%=      5-min Rain = 0
KCA1 100458Z 31005KT M01/M07 A3031 RMK A01 T10111073  RH  063%=      5-min Rain = 0
KCA1 100459Z 31005KT M01/M07 A3031 RMK A01 T10111073  RH  063%=      5-min Rain = 0
KCA1 100500Z 31005KT M01/M07 A3031 RMK A01 T10111073  RH  063%=      5-min Rain = 0
KCA1 100501Z 31005KT M01/M07 A3031 RMK A01 T10111073  RH  063%=      5-min Rain = 0
KCA1 100502Z 31005KT M01/M07 A3031 RMK A01 T10101073  RH  063%=      5-min Rain = 0
KCA1 100503Z 31006KT M01/M07 A3031 RMK A01 T10101072  RH  063%=      5-min Rain = 0
KCA1 100504Z 30006KT M01/M07 A3031 RMK A01 T10101072  RH  063%=      5-min Rain = 0
KCA1 100505Z 31005KT M01/M07 A3031 RMK A01 T10101072  RH  063%=      5-min Rain = 0
KCA1 100506Z 30005KT M01/M07 A3031 RMK A01 T10101072  RH  063%=      5-min Rain = 0
KCA1 100507Z 31005KT M01/M07 A3031 RMK A01 T10101073  RH  063%=      5-min Rain = 0
KCA1 100508Z 30006KT M01/M07 A3031 RMK A01 T10101072  RH  063%=      5-min Rain = 0
KCA1 100509Z 30006KT M01/M07 A3031 RMK A01 T10111072  RH  063%=      5-min Rain = 0
KCA1 100510Z 30006KT M01/M07 A3031 RMK A01 T10101072  RH  063%=      5-min Rain = 0
KCA1 100511Z 30006KT M01/M07 A3031 RMK A01 T10101072  RH  063%=      5-min Rain = 0
KCA1 100512Z 30006KT M01/M07 A3031 RMK A01 T10101072  RH  063%=      5-min Rain = 0
KCA1 100513Z 30006KT M01/M07 A3031 RMK A01 T10101072  RH  063%=      5-min Rain = 0
KCA1 100514Z 30006KT M01/M07 A3031 RMK A01 T10101072  RH  063%=      5-min Rain = 0
KCA1 100515Z 30006KT M01/M07 A3031 RMK A01 T10101072  RH  063%=      5-min Rain = 0
KCA1 100516Z 30007KT M01/M07 A3031 RMK A01 T10111073  RH  063%=      5-min Rain = 0
KCA1 100517Z 30006KT M01/M07 A3031 RMK A01 T10111072  RH  063%=      5-min Rain = 0
KCA1 100518Z 30006KT M01/M07 A3031 RMK A01 T10111072  RH  063%=      5-min Rain = 0
KCA1 100519Z 30006KT M01/M07 A3031 RMK A01 T10111072  RH  063%=      5-min Rain = 0
KCA1 100520Z 30006KT M01/M07 A3032 RMK A01 T10111072  RH  063%=      5-min Rain = 0
KCA1 100521Z 30006KT M01/M07 A3032 RMK A01 T10111072  RH  063%=      5-min Rain = 0
KCA1 100522Z 30006KT M01/M07 A3032 RMK A01 T10111072  RH  063%=      5-min Rain = 0
KCA1 100523Z 30006KT M01/M07 A3032 RMK A01 T10111072  RH  063%=      5-min Rain = 0
KCA1 100524Z 30006KT M01/M07 A3032 RMK A01 T10111071  RH  064%=      5-min Rain = 0
KCA1 100525Z 30006KT M01/M07 A3032 RMK A01 T10111072  RH  063%=      5-min Rain = 0
KCA1 100526Z 30006KT M01/M07 A3032 RMK A01 T10111072  RH  063%=      5-min Rain = 0
KCA1 100527Z 30006KT M01/M07 A3032 RMK A01 T10111071  RH  064%=      5-min Rain = 0
KCA1 100528Z 30006KT M01/M07 A3032 RMK A01 T10111071  RH  063%=      5-min Rain = 0
KCA1 100529Z 30006KT M01/M07 A3032 RMK A01 T10111072  RH  063%=      5-min Rain = 0
KCA1 100530Z 30006KT M01/M07 A3032 RMK A01 T10111072  RH  064%=      5-min Rain = 0
KCA1 100531Z 30006KT M01/M07 A3031 RMK A01 T10121072  RH  064%=      5-min Rain = 0
KCA1 100532Z 30006KT M01/M07 A3031 RMK A01 T10121072  RH  064%=      5-min Rain = 0
KCA1 100533Z 30006KT M01/M07 A3031 RMK A01 T10121071  RH  064%=      5-min Rain = 0
KCA1 100534Z 30006KT M01/M07 A3031 RMK A01 T10121071  RH  064%=      5-min Rain = 0
KCA1 100535Z 30006KT M01/M07 A3031 RMK A01 T10121071  RH  064%=      5-min Rain = 0
KCA1 100536Z 30005KT M01/M07 A3031 RMK A01 T10131072  RH  064%=      5-min Rain = 0
KCA1 100537Z 31006KT M01/M07 A3031 RMK A01 T10131073  RH  064%=      5-min Rain = 0
KCA1 100538Z 31005KT M01/M07 A3031 RMK A01 T10141073  RH  064%=      5-min Rain = 0
KCA1 100539Z 31005KT M02/M07 A3031 RMK A01 T10151073  RH  064%=      5-min Rain = 0
KCA1 100540Z 31005KT M02/M07 A3031 RMK A01 T10151073  RH  065%=      5-min Rain = 0
KCA1 100541Z 30006KT M02/M07 A3031 RMK A01 T10151072  RH  065%=      5-min Rain = 0
KCA1 100542Z 30007KT M02/M07 A3031 RMK A01 T10151072  RH  065%=      5-min Rain = 0
KCA1 100543Z 30007KT M01/M07 A3032 RMK A01 T10141072  RH  065%=      5-min Rain = 0
KCA1 100544Z 30007KT M01/M07 A3032 RMK A01 T10141071  RH  065%=      5-min Rain = 0
KCA1 100545Z 29007KT M01/M07 A3031 RMK A01 T10131071  RH  065%=      5-min Rain = 0
KCA1 100546Z 30006KT M01/M07 A3031 RMK A01 T10121070  RH  065%=      5-min Rain = 0
KCA1 100547Z 30007KT M01/M07 A3031 RMK A01 T10111069  RH  064%=      5-min Rain = 0
KCA1 100548Z 30006KT M01/M07 A3031 RMK A01 T10101069  RH  064%=      5-min Rain = 0
KCA1 100549Z 30006KT M01/M07 A3031 RMK A01 T10091070  RH  064%=      5-min Rain = 0
KCA1 100550Z 30006KT M01/M07 A3031 RMK A01 T10091070  RH  063%=      5-min Rain = 0
KCA1 100551Z 30006KT M01/M07 A3031 RMK A01 T10091070  RH  063%=      5-min Rain = 0
KCA1 100552Z 30006KT M01/M07 A3031 RMK A01 T10101071  RH  063%=      5-min Rain = 0
KCA1 100553Z 30007KT M01/M07 A3031 RMK A01 T10101071  RH  063%=      5-min Rain = 0
KCA1 100554Z 30006KT M01/M07 A3031 RMK A01 T10101071  RH  063%=      5-min Rain = 0
KCA1 100555Z 30006KT M01/M07 A3031 RMK A01 T10111071  RH  064%=      5-min Rain = 0
KCA1 100556Z 30006KT M01/M07 A3031 RMK A01 T10121072  RH  064%=      5-min Rain = 0
KCA1 100557Z 30006KT M01/M07 A3031 RMK A01 T10121072  RH  064%=      5-min Rain = 0
KCA1 100558Z 30006KT M01/M07 A3031 RMK A01 T10121071  RH  064%=      5-min Rain = 0
KCA1 100559Z 30007KT M01/M07 A3031 RMK A01 T10121071  RH  064%=      5-min Rain = 0

Page generated in 0.0941 seconds.